GFSNIL_sfc_wetblb_000.txt.gz
Wetbulb
52.49 52.01 50.70 49.94 48.82 47.97 47.92 48.85 49.68 49.14 49.26 49.10 49.16 48.94 48.72 45.74 43.73 44.50 44.11 43.40 41.81 41.14
52.10 50.60 49.18 48.51 48.15 47.92 48.59 48.11 48.23 48.38 47.42 45.97 45.98 45.79 45.17 43.57 42.10 42.25 41.68 42.39 42.32 42.12
49.86 49.15 47.74 47.06 46.53 47.07 47.52 47.91 46.65 45.50 44.88 44.52 44.67 44.61 43.85 42.78 41.41 40.92 40.85 39.74 39.58 40.36
48.21 46.89 46.55 46.46 46.18 46.20 46.46 45.54 44.95 44.32 43.96 43.15 41.70 41.32 40.68 40.74 40.97 40.24 39.85 40.00 40.06 39.48
46.61 46.41 45.76 45.64 45.22 45.11 44.50 44.53 44.15 42.92 41.54 41.31 40.97 40.47 39.57 39.56 39.79 39.02 38.31 38.65 38.89 38.12
45.77 45.49 44.63 44.01 43.50 43.11 42.35 41.84 41.64 41.43 40.85 40.25 40.07 40.29 39.52 38.80 38.65 38.58 38.56 38.11 37.10 36.76
44.60 44.07 42.93 42.05 41.83 41.79 41.62 41.09 40.83 40.39 39.88 39.54 38.68 38.19 38.11 37.82 37.53 37.11 36.63 36.33 36.13 35.74
42.28 42.01 41.77 41.44 40.84 40.60 39.89 38.88 38.57 37.87 37.73 37.79 37.18 36.61 36.04 35.93 36.26 35.99 35.56 35.39 35.38 35.44
41.26 40.86 39.87 39.61 39.24 38.51 37.70 37.41 37.40 36.87 36.67 36.14 35.96 32.64 32.18 32.79 34.39 34.36 34.21 33.98 34.64 34.57
40.69 38.86 38.53 38.04 37.35 36.84 36.60 36.95 36.20 35.88 35.70 35.01 35.30 30.14 29.98 29.63 31.91 32.37 32.65 32.93 32.88 32.23
39.01 37.59 37.45 36.83 36.17 36.27 36.36 35.59 35.25 34.93 34.49 33.89 33.58 29.96 28.66 27.93 30.32 31.70 31.87 31.97 31.98 31.44
38.32 36.96 36.19 35.76 35.52 36.06 35.38 35.01 34.45 33.78 32.96 32.33 32.20 29.85 27.71 27.59 29.22 29.31 29.52 30.49 31.22 30.26
38.48 36.67 35.54 35.60 35.83 35.95 35.61 34.09 33.59 32.10 32.31 30.55 30.17 28.60 27.12 27.24 27.98 27.00 27.30 28.50 29.07 29.02
38.27 36.31 36.21 36.26 36.45 35.81 34.62 33.05 31.21 30.64 30.19 30.11 29.08 28.17 26.84 26.39 26.11 26.96 26.06 26.70 28.41 30.35

GFSNIL_sfc_wetblb_003.txt.gz
Wetbulb
53.84 52.94 51.95 51.25 49.58 48.38 48.45 49.28 49.78 49.63 49.56 49.36 49.04 48.54 48.02 46.68 46.34 44.75 44.31 42.50 41.80 42.02
52.68 51.24 50.06 49.35 48.93 48.44 49.00 48.17 48.80 48.72 47.89 47.62 47.14 45.82 45.49 44.55 43.23 43.89 43.40 42.60 42.39 41.73
50.63 50.19 49.06 48.44 47.79 47.72 47.87 47.77 47.42 47.04 45.68 44.73 44.48 43.99 42.45 42.68 42.98 42.02 42.29 41.77 41.41 40.36
49.10 48.83 48.18 47.45 47.28 46.84 46.34 45.84 44.92 44.48 43.59 42.80 41.79 41.74 41.56 41.31 41.15 40.45 40.67 41.01 40.76 40.35
47.86 47.86 47.01 46.50 45.37 44.98 44.86 44.63 43.96 42.75 41.94 41.48 41.48 40.97 40.37 39.99 39.34 38.94 38.44 38.77 38.85 38.61
46.28 45.90 45.47 44.35 43.98 43.58 43.26 42.94 42.67 42.24 41.16 40.42 40.14 39.60 39.24 38.98 38.80 38.42 38.07 37.74 37.44 36.95
44.54 44.08 43.63 42.92 42.43 42.26 41.84 40.71 39.82 39.58 39.13 38.86 38.50 38.33 38.16 37.80 36.99 36.42 36.90 37.33 37.02 36.60
43.45 43.20 42.72 41.68 41.17 41.06 40.23 39.43 39.19 38.69 38.57 38.45 37.92 36.93 36.15 35.73 34.81 34.36 34.80 36.35 36.39 37.07
42.76 42.19 41.24 40.51 40.00 39.32 38.77 38.51 38.40 37.80 37.53 37.05 36.68 31.92 31.13 31.11 32.33 31.89 32.06 32.48 34.10 35.15
41.84 41.01 40.03 39.44 38.67 37.90 37.66 37.93 37.07 36.93 36.74 35.82 35.74 30.55 30.00 29.35 30.82 30.19 30.67 31.64 32.50 32.62
41.17 40.47 39.77 38.57 37.84 37.61 37.58 36.94 36.22 35.93 35.88 34.88 34.36 31.71 29.35 28.26 29.40 29.52 30.01 30.85 31.24 31.42
41.15 39.92 38.34 37.44 37.31 37.38 36.85 36.48 35.88 35.57 34.51 32.98 32.39 31.44 29.38 28.14 28.13 27.63 27.82 29.05 29.76 30.30
40.78 39.38 38.06 37.67 37.17 37.35 36.96 35.92 35.42 34.19 33.19 31.72 31.04 31.17 28.95 28.12 27.83 26.29 26.90 28.43 28.78 29.37
40.33 39.40 38.53 37.65 37.61 36.76 36.25 35.49 34.04 33.06 32.59 31.66 31.42 30.48 28.69 27.50 27.20 26.69 26.71 26.38 27.38 29.78

GFSNIL_sfc_wetblb_006.txt.gz
Wetbulb
51.96 49.72 48.94 48.21 46.60 45.88 45.60 45.58 46.40 46.64 46.64 45.93 45.09 44.00 44.05 42.69 43.41 41.84 41.81 41.83 41.48 39.49
49.43 49.08 48.19 46.98 46.98 46.04 46.29 46.01 45.16 44.84 44.36 44.49 43.67 43.08 41.94 40.90 40.33 40.47 40.30 40.29 40.38 39.31
47.86 48.74 48.10 47.31 45.84 45.20 44.61 44.36 44.00 43.61 43.14 42.87 42.62 42.15 41.35 40.15 40.66 40.22 39.74 40.30 39.80 39.36
47.55 47.18 46.69 45.72 44.31 43.60 43.32 42.87 41.99 42.30 42.07 41.51 40.91 40.91 40.63 39.50 39.50 38.31 37.21 38.04 38.62 38.40
46.55 45.47 44.40 44.06 42.73 42.36 41.48 42.17 41.27 40.95 40.21 40.08 39.58 39.55 38.82 38.49 38.53 37.71 36.64 36.67 36.40 36.63
44.62 43.33 42.46 42.27 42.10 41.81 40.87 40.65 39.90 38.54 37.38 36.96 36.76 36.20 35.70 35.40 35.69 34.24 33.18 33.40 33.45 34.00
43.44 42.12 41.24 41.34 40.40 39.94 39.73 38.31 37.46 37.36 37.21 37.01 36.51 36.35 35.19 34.70 33.16 32.35 32.21 32.18 31.73 32.11
43.63 42.38 41.85 40.66 39.82 39.44 38.61 37.86 37.16 36.57 36.18 36.20 35.97 33.55 31.83 31.40 30.36 29.81 29.68 29.94 30.85 31.52
43.78 42.26 41.00 40.25 39.57 38.27 37.38 36.75 36.04 35.40 35.17 34.32 35.66 31.90 31.07 29.68 27.53 28.83 28.12 26.80 28.09 29.52
41.56 40.44 40.71 40.00 39.05 37.23 35.53 35.40 34.91 34.53 34.54 33.37 32.88 32.37 31.24 29.62 27.49 26.67 26.09 26.00 26.68 27.93
41.63 40.60 40.27 39.14 38.14 36.93 35.57 34.44 33.79 33.75 33.37 32.05 32.46 32.83 32.40 29.89 26.18 25.46 25.31 25.75 25.76 26.06
40.59 39.64 38.75 37.64 36.99 35.70 34.45 33.80 33.29 33.52 32.10 30.40 30.06 32.65 31.69 29.61 25.52 25.42 24.70 25.80 26.61 27.30
39.64 39.05 38.04 37.45 36.23 34.93 34.28 33.79 32.82 31.53 30.82 31.74 29.20 32.07 31.14 28.53 25.15 22.83 24.07 25.53 26.21 27.64
39.08 38.02 38.02 36.84 35.47 33.77 32.67 31.54 30.63 29.73 29.72 29.58 29.97 28.65 29.46 28.20 25.22 23.92 23.69 23.31 23.68 25.87

GFSNIL_sfc_wetblb_009.txt.gz
Wetbulb
45.79 45.26 46.27 45.42 44.91 43.55 41.90 41.67 41.93 42.19 42.18 42.15 41.90 41.25 40.04 39.45 39.42 40.90 40.18 39.67 39.20 38.80
46.83 47.02 45.85 44.77 42.15 41.35 41.25 42.88 41.14 41.06 40.57 40.68 40.95 42.15 41.64 40.19 39.96 38.87 38.07 38.05 38.45 40.27
46.03 46.04 44.36 41.46 40.31 40.18 40.01 40.35 39.57 39.11 38.95 39.19 39.58 39.62 38.98 37.72 37.44 37.18 36.83 38.18 37.83 36.76
44.61 42.22 41.46 40.77 39.94 39.52 39.02 38.74 39.13 39.44 38.82 38.33 37.84 37.66 37.68 37.24 37.06 36.98 36.26 36.43 36.03 34.76
42.55 40.90 39.89 39.40 39.01 38.55 38.28 38.75 38.30 37.64 35.64 35.28 34.42 33.89 33.56 33.73 33.66 32.07 30.82 30.84 30.63 30.91
42.86 39.52 38.26 37.81 38.38 37.77 36.82 36.04 35.45 34.85 34.25 34.24 34.41 33.70 32.82 32.20 31.55 30.85 30.23 29.88 29.07 28.86
42.70 40.43 38.50 38.94 38.31 37.41 36.77 34.93 34.13 34.40 34.42 34.57 34.09 32.75 31.87 31.07 29.15 28.46 28.87 29.26 28.78 28.54
41.36 41.24 39.83 39.39 38.59 38.33 36.78 34.88 34.30 34.00 33.59 33.30 32.91 31.80 29.25 28.55 26.92 26.43 26.44 27.09 27.64 27.55
40.90 40.43 40.91 40.64 39.51 36.85 35.09 33.42 32.81 32.78 32.57 31.41 32.29 31.47 30.72 28.89 25.62 26.25 25.61 24.12 24.73 25.66
40.34 39.65 39.53 40.15 38.07 36.10 34.33 32.10 31.61 31.17 31.12 30.15 28.94 33.02 32.69 30.33 26.66 24.93 24.01 23.25 23.93 24.56
38.71 38.16 39.45 39.06 36.41 34.31 33.69 30.86 29.76 29.35 29.63 29.15 30.93 32.78 33.04 31.25 26.22 24.35 24.54 24.75 24.96 24.40
36.97 37.54 37.07 37.21 35.85 33.97 31.08 29.21 29.49 29.73 28.94 27.89 27.78 31.79 31.46 28.89 24.67 24.61 24.19 25.74 25.56 25.12
36.96 36.58 35.91 36.44 35.21 30.66 30.03 29.96 29.54 29.14 28.47 29.84 26.69 30.05 29.74 28.32 25.40 21.58 22.96 23.74 24.49 25.81
36.51 35.82 35.33 33.74 30.89 29.26 27.90 28.00 25.91 25.42 25.92 26.85 26.64 25.04 27.91 26.97 23.13 22.44 22.51 21.89 22.54 24.30

GFSNIL_sfc_wetblb_012.txt.gz
Wetbulb
44.01 45.59 46.04 44.12 43.81 42.69 40.42 39.89 40.73 40.22 39.82 39.62 39.82 39.35 38.78 37.55 37.10 37.31 36.78 36.33 36.21 38.31
46.26 46.24 44.01 42.95 40.47 39.74 39.80 41.26 39.16 38.84 38.32 38.28 38.69 38.78 38.21 37.05 35.93 35.67 35.17 35.29 35.81 36.72
43.53 43.19 41.53 40.40 39.23 39.01 38.75 38.83 38.14 37.61 37.44 37.48 37.78 37.43 36.81 35.94 35.86 34.74 34.70 35.90 33.96 32.84
41.61 40.89 40.52 39.55 38.64 38.60 38.26 37.71 38.12 38.28 37.30 35.44 34.59 34.10 33.19 33.39 34.39 32.26 30.63 30.19 29.99 29.92
41.38 40.29 38.63 38.90 39.24 37.40 37.07 37.69 37.17 37.89 34.93 33.77 32.93 32.42 31.63 31.24 31.08 29.84 29.06 28.88 28.43 28.17
41.66 40.29 37.67 37.54 37.30 38.66 37.09 37.35 38.10 34.80 33.97 33.28 32.89 32.14 31.01 30.05 29.29 28.00 27.67 27.52 27.23 26.89
39.42 39.65 36.89 37.36 37.89 38.53 38.79 39.30 37.97 34.71 34.04 34.37 32.51 31.35 30.15 29.16 27.24 26.83 27.10 27.70 27.13 26.23
38.97 38.94 38.62 39.12 38.53 38.48 38.97 38.99 35.74 33.72 33.58 32.36 31.10 30.76 28.23 28.13 27.04 26.10 25.78 26.24 26.35 25.69
39.24 38.99 38.71 38.58 39.00 37.83 37.73 34.37 34.74 32.69 31.60 29.70 31.46 32.01 31.64 30.03 26.05 26.14 25.33 23.82 24.82 24.67
38.91 37.54 37.22 38.10 37.91 36.88 35.57 35.56 30.61 29.55 29.22 28.60 28.12 32.54 33.27 31.22 27.51 25.69 24.22 23.67 23.58 24.22
36.62 35.81 36.32 36.15 35.58 35.63 35.32 30.85 28.79 28.78 28.32 27.43 29.09 31.86 31.22 30.29 25.69 24.24 24.56 24.38 24.12 23.45
35.76 35.40 35.09 34.80 33.92 33.93 30.94 28.87 29.07 28.83 27.58 26.57 26.13 29.22 29.23 27.09 23.06 23.46 22.55 24.16 24.21 24.45
35.82 35.26 34.28 33.51 32.91 30.38 28.77 29.57 28.69 27.15 26.05 27.12 23.62 26.92 27.60 26.30 22.45 17.88 21.57 22.21 23.33 24.60
33.95 32.83 32.60 30.88 29.99 28.74 28.57 27.35 24.12 23.37 24.14 24.42 24.42 23.04 25.78 25.54 22.46 21.48 21.49 20.76 21.42 22.80

GFSNIL_sfc_wetblb_015.txt.gz
Wetbulb
43.09 43.91 43.43 42.40 42.00 41.26 39.99 39.66 39.91 38.98 38.59 38.13 38.37 38.05 37.45 36.20 35.62 35.25 34.06 32.91 33.27 33.75
42.96 43.71 42.76 41.88 40.38 39.62 38.94 39.95 39.24 38.79 38.78 38.52 37.78 37.82 37.09 35.69 34.66 34.22 33.88 33.02 33.21 33.08
42.01 42.22 41.88 40.35 39.17 38.55 38.51 40.39 39.21 39.12 38.89 38.26 38.17 36.53 35.67 34.76 33.53 33.59 33.54 33.13 29.48 28.81
41.24 40.50 39.80 38.80 37.94 38.26 38.17 37.11 37.98 39.14 38.54 37.18 34.89 33.20 32.35 32.37 32.34 31.26 29.30 28.54 28.52 28.26
40.41 39.60 38.27 37.03 37.21 36.89 38.20 38.11 36.78 37.26 37.64 34.64 33.95 32.29 31.97 30.55 30.54 28.75 27.48 27.55 27.11 26.98
38.01 38.19 38.19 36.34 36.46 36.73 35.87 35.36 36.56 36.95 35.22 33.11 33.16 32.87 31.28 29.44 28.31 27.54 27.27 27.08 26.54 26.39
37.52 37.71 36.49 36.21 35.62 35.58 35.96 36.66 36.07 37.13 34.48 33.50 33.59 31.32 29.29 28.39 27.92 26.95 27.11 27.29 26.78 25.95
37.83 37.53 37.40 37.17 37.05 36.75 37.36 37.27 37.86 33.97 33.91 32.26 30.80 29.87 28.17 28.53 27.37 26.41 25.79 26.54 26.42 26.18
37.71 37.69 37.22 37.09 37.06 37.01 36.91 36.01 33.28 34.48 30.07 28.65 30.74 32.41 32.68 32.14 27.52 27.22 26.19 24.83 25.20 25.03
36.49 36.44 35.14 35.91 35.98 35.07 33.53 35.94 31.38 28.13 28.31 27.78 28.33 32.32 32.29 31.17 28.02 25.83 24.57 23.93 23.48 23.73
34.93 34.66 34.68 34.41 34.22 33.12 32.75 30.87 27.65 27.72 28.07 27.40 28.38 29.63 29.70 28.09 23.96 22.69 23.29 22.66 22.61 22.58
34.59 34.37 33.73 32.99 32.41 31.98 30.37 28.34 27.90 28.27 27.05 24.42 23.65 27.46 27.92 26.21 22.69 22.40 21.77 22.95 22.68 23.45
34.36 32.88 31.52 30.56 30.74 28.85 28.94 29.22 28.04 26.12 25.27 26.01 22.61 25.39 25.94 25.00 20.37 15.83 21.11 21.71 22.34 23.83
31.96 30.82 30.35 28.55 27.87 27.82 27.43 26.36 24.27 23.44 23.81 23.89 23.53 22.27 25.49 25.25 19.65 20.32 21.71 20.92 20.75 22.70

GFSNIL_sfc_wetblb_018.txt.gz
Wetbulb
41.94 41.81 41.93 41.33 40.66 40.64 40.27 39.28 38.90 38.45 37.97 37.57 37.27 37.46 37.67 36.58 36.14 35.56 34.44 33.16 32.48 32.39
41.54 41.25 41.44 41.04 39.94 39.08 38.72 39.58 38.32 37.70 37.56 37.42 37.60 37.68 37.76 36.18 35.36 34.56 34.84 33.64 32.54 32.65
40.93 40.70 39.95 38.99 38.32 37.61 37.48 37.95 37.52 38.56 37.05 37.51 37.81 36.86 35.69 35.26 33.82 33.13 32.70 33.02 30.00 28.44
38.62 38.28 37.89 37.70 37.16 37.00 37.04 37.28 37.00 36.86 36.79 37.42 36.67 33.94 32.66 31.58 31.76 31.70 29.79 28.83 28.46 28.10
37.26 37.64 37.69 36.42 36.47 36.43 36.30 36.64 36.16 36.40 37.73 37.36 34.36 32.20 30.66 31.06 30.63 29.01 27.74 27.71 27.38 27.17
36.15 36.38 36.07 35.67 35.88 35.78 35.04 34.63 35.64 37.84 36.11 35.50 33.12 31.67 31.96 29.57 28.59 27.49 27.39 27.10 26.58 26.36
35.70 36.00 35.60 35.66 35.59 35.19 35.43 34.72 37.13 36.38 35.91 32.92 32.33 31.37 29.00 28.22 27.53 27.30 27.32 27.40 26.85 26.49
35.80 36.65 36.51 36.33 35.95 36.00 35.89 36.22 38.60 36.24 33.29 31.13 30.32 29.80 28.36 28.62 28.18 27.07 26.57 26.84 27.05 26.88
35.64 35.91 36.13 35.45 34.82 35.37 34.70 34.04 34.19 31.68 30.01 28.52 29.87 32.67 32.98 30.78 27.93 26.82 25.73 24.17 24.11 24.38
34.96 34.60 34.73 34.18 34.00 33.64 32.85 32.24 29.62 27.63 27.49 27.18 28.76 30.67 30.44 29.80 26.23 23.87 23.04 22.27 21.99 22.41
33.75 33.26 33.34 32.91 32.65 32.19 31.32 30.16 27.81 27.36 27.23 27.02 26.32 28.18 28.59 28.18 24.57 23.00 22.83 22.59 22.29 22.00
33.14 32.64 32.48 31.04 30.27 29.88 29.13 27.59 27.81 27.85 26.08 23.20 22.97 26.89 26.77 25.75 22.60 22.31 21.89 22.87 22.95 23.19
32.60 31.76 29.92 29.48 28.58 28.91 27.38 27.81 26.93 26.04 24.69 25.61 22.43 24.73 26.15 25.33 20.72 16.45 20.73 22.37 22.70 23.24
31.45 29.85 29.36 28.01 27.06 26.51 26.51 26.01 24.16 24.27 23.70 23.72 23.65 22.40 25.27 26.13 20.63 20.56 21.97 21.18 20.59 22.19

GFSNIL_sfc_wetblb_021.txt.gz
Wetbulb
48.54 48.73 48.77 48.46 47.95 47.26 46.70 46.27 46.29 46.06 44.53 43.74 43.52 43.59 43.68 42.95 42.43 42.10 41.18 40.25 39.63 38.62
48.44 47.73 46.86 45.94 46.09 45.75 45.55 44.66 45.48 45.12 44.00 43.76 43.55 43.26 42.97 42.20 41.97 41.74 40.98 40.02 39.66 38.76
45.56 45.45 45.27 45.35 44.18 44.16 44.55 44.59 44.66 44.70 44.28 43.60 42.75 42.04 42.14 41.29 41.17 39.65 39.60 38.80 38.51 37.12
44.34 44.36 44.74 43.88 43.60 43.53 43.90 43.48 42.88 43.02 42.59 42.00 40.30 40.15 40.98 39.72 38.66 37.17 37.59 37.36 35.90 34.96
43.44 43.65 43.45 43.01 42.81 43.04 42.13 42.33 41.76 41.60 41.52 40.65 39.31 41.41 39.13 37.33 36.99 36.20 35.45 34.81 34.05 33.56
42.41 42.56 42.41 42.17 42.56 42.60 42.07 42.04 41.97 40.75 40.44 40.36 40.93 37.78 37.13 36.04 34.97 34.11 33.93 33.65 32.99 32.46
41.48 41.88 42.23 42.53 42.56 42.28 41.59 41.44 41.39 41.39 40.68 38.36 37.28 36.01 34.86 34.03 34.35 34.09 33.63 33.04 32.31 31.28
40.62 41.70 41.97 42.00 41.87 41.11 41.01 41.04 40.69 39.19 37.59 35.48 35.01 34.16 34.63 34.51 33.46 32.35 31.18 30.66 29.52 29.01
39.79 40.70 40.72 40.98 40.38 40.01 40.07 39.62 39.47 36.87 34.75 34.20 33.76 32.41 31.77 31.61 31.29 29.92 28.44 27.36 27.71 27.61
39.19 39.16 39.64 39.46 39.05 38.84 38.09 38.53 37.42 34.82 33.31 32.57 32.23 29.56 29.66 28.95 30.34 28.37 27.48 26.69 26.24 25.86
38.40 38.21 38.56 38.28 38.00 37.38 37.06 37.33 36.29 33.46 32.49 31.55 29.54 27.98 27.72 27.24 28.60 27.60 26.87 26.33 26.04 25.83
37.77 37.16 37.21 36.58 36.29 36.15 35.91 35.26 34.11 33.26 31.02 29.64 28.90 26.64 26.91 27.29 27.49 26.44 25.96 26.18 26.55 25.80
37.32 36.30 36.21 35.45 35.26 34.92 34.40 33.70 33.14 30.61 30.13 26.99 27.94 25.04 26.10 27.09 27.90 25.90 25.57 26.15 25.57 24.27
36.02 35.94 35.50 35.02 34.67 33.87 33.53 32.55 30.88 29.35 29.22 28.18 27.19 27.14 25.41 26.14 27.37 25.98 24.89 23.84 23.45 24.62

GFSNIL_sfc_wetblb_024.txt.gz
Wetbulb
50.02 51.22 50.43 49.31 47.81 47.03 46.70 46.31 46.91 46.84 47.67 48.70 48.46 47.75 47.01 45.83 43.93 43.66 42.24 42.00 41.80 40.97
49.22 48.17 47.33 46.94 47.48 46.43 46.13 45.30 45.78 46.32 46.54 47.28 46.55 47.02 46.36 45.10 43.75 44.17 42.57 42.63 41.21 40.06
47.57 47.76 47.69 47.07 45.37 45.21 45.66 45.67 45.04 45.00 45.24 45.90 46.32 46.26 45.40 43.83 44.01 42.43 42.38 40.76 39.48 39.75
47.15 47.11 46.68 45.66 45.21 45.29 45.39 44.96 44.17 44.47 44.29 44.27 44.40 44.21 43.90 43.41 43.33 41.68 40.67 39.88 39.51 39.27
46.67 45.93 45.53 45.12 45.18 45.35 44.59 44.81 44.16 44.20 43.64 43.45 43.14 43.25 41.79 42.05 40.89 39.76 39.08 39.06 38.59 38.00
45.36 45.41 45.14 45.07 45.35 45.24 44.64 43.78 43.81 43.49 43.06 42.29 42.21 41.18 39.38 40.17 39.33 38.94 38.55 38.26 37.51 36.69
45.28 44.98 44.75 45.20 45.03 44.64 44.10 42.86 42.84 43.02 42.51 41.90 41.27 40.24 39.59 38.20 38.74 38.36 37.95 37.18 36.23 34.79
44.77 44.67 44.59 44.59 44.42 43.99 43.04 42.64 42.68 42.14 42.02 41.14 39.90 38.58 38.10 38.12 37.66 36.70 35.69 35.05 33.97 33.54
43.15 43.15 43.08 43.41 42.87 42.15 42.01 42.09 41.72 41.05 40.59 39.36 38.22 31.38 31.07 31.29 35.35 35.32 33.64 32.49 32.67 32.63
41.93 41.53 41.83 41.89 41.40 41.06 41.14 41.37 40.69 40.63 39.46 38.06 37.54 29.36 29.02 28.62 33.64 33.19 32.59 31.74 31.38 30.61
40.83 40.40 40.81 40.76 40.49 41.04 40.99 40.09 39.89 39.72 38.42 37.55 35.02 28.00 27.64 27.72 33.19 32.61 31.89 31.42 30.97 30.59
40.48 39.66 39.52 39.33 39.81 40.44 39.82 39.34 39.02 38.69 37.70 36.35 35.18 27.53 26.89 28.08 32.21 31.50 30.70 31.03 31.00 29.39
39.92 39.06 38.41 39.22 39.54 39.66 39.57 37.94 37.97 37.18 36.97 31.16 33.73 26.93 26.26 27.85 31.58 30.03 29.93 30.56 29.92 26.92
39.23 38.78 38.83 39.22 39.27 38.67 38.33 37.65 36.71 34.82 35.15 34.40 33.00 32.12 26.08 25.82 29.45 29.83 28.47 28.51 28.77 28.49

GFSNIL_sfc_wetblb_027.txt.gz
Wetbulb
50.96 50.58 50.66 49.94 48.85 48.11 47.09 46.65 47.31 47.03 46.79 46.87 47.48 47.59 47.83 46.72 45.53 45.75 45.16 43.73 42.91 41.62
49.51 48.88 47.95 48.25 48.73 47.61 47.00 46.36 46.51 46.60 45.69 45.91 46.18 46.52 47.10 46.01 44.94 44.96 44.88 44.11 43.60 41.80
48.29 48.11 48.59 48.42 47.31 46.35 46.67 46.52 45.96 45.51 45.25 45.27 45.25 45.46 45.37 44.61 44.77 43.89 43.86 43.03 42.04 41.36
47.40 48.28 48.14 47.85 47.10 46.56 46.59 46.05 45.31 44.64 44.37 44.17 43.99 44.35 44.21 43.76 43.58 42.64 42.35 42.27 41.04 40.14
48.38 47.66 47.45 46.96 46.41 46.60 45.95 46.14 45.14 44.08 43.78 43.60 43.42 42.99 42.03 41.59 41.63 39.60 39.70 39.72 39.25 38.67
47.33 47.08 46.83 46.55 46.30 46.33 46.00 45.43 44.62 43.78 43.27 42.78 42.75 41.66 40.89 40.08 39.69 39.59 39.48 39.11 38.29 37.31
46.78 46.81 46.64 46.08 45.73 45.70 45.65 44.45 43.62 43.34 43.14 42.84 41.99 40.83 40.26 39.41 39.28 38.94 38.42 38.37 37.26 36.12
46.79 46.47 45.69 44.96 45.16 45.32 44.60 43.59 43.53 43.02 42.52 41.86 40.81 39.45 38.66 38.38 37.32 36.74 36.76 37.04 35.84 35.55
45.51 44.82 44.07 43.75 44.05 44.01 43.04 42.77 42.85 42.20 41.57 40.21 39.55 31.62 31.48 31.23 35.33 35.77 35.24 34.24 34.37 34.40
44.21 43.02 42.52 42.63 42.41 41.92 42.01 42.66 41.80 41.47 40.89 39.84 38.76 31.30 30.10 29.32 33.25 34.52 34.50 33.92 33.07 32.71
42.60 41.58 41.84 41.55 41.22 41.42 41.98 41.68 41.13 40.64 40.10 39.20 36.35 30.32 28.94 28.60 32.40 34.48 34.19 33.65 33.17 32.26
41.39 40.59 40.29 40.01 40.22 40.90 41.07 40.59 40.13 39.95 38.89 37.85 35.80 29.84 28.78 28.12 32.79 33.17 32.75 33.16 32.77 31.55
40.54 39.97 39.59 39.90 39.78 40.64 40.68 39.75 39.52 38.32 38.90 34.25 36.68 29.46 28.86 28.00 31.90 31.21 31.33 32.19 31.81 28.51
39.95 39.84 40.15 39.72 39.58 39.85 39.27 38.93 38.36 37.05 37.43 37.05 35.49 33.83 29.17 27.80 29.63 30.93 29.99 29.48 29.67 30.95

GFSNIL_sfc_wetblb_030.txt.gz
Wetbulb
51.37 49.34 48.79 48.67 46.63 46.29 45.14 44.18 44.66 44.05 43.98 43.80 43.80 43.48 43.57 43.41 42.84 42.40 40.88 40.28 40.05 40.13
49.03 47.85 47.17 46.70 47.52 47.02 44.97 45.05 44.70 43.80 43.31 43.26 42.88 42.87 42.59 41.80 42.02 41.68 40.92 39.86 39.78 39.86
48.18 48.25 46.81 46.97 47.18 45.09 44.46 44.63 43.79 43.44 42.76 42.44 42.51 42.13 41.22 41.06 41.07 40.35 40.06 40.49 39.24 38.96
47.10 47.62 46.87 46.90 45.94 45.03 44.86 43.96 43.87 43.38 42.28 41.69 41.38 41.32 40.14 39.38 38.96 38.69 38.41 38.04 38.52 38.50
47.27 46.71 46.40 46.45 45.83 45.16 44.22 44.61 43.92 43.19 41.85 41.95 41.35 40.60 39.07 38.50 38.39 38.40 37.73 37.01 37.58 36.29
45.98 46.33 45.60 46.11 45.72 44.63 44.35 43.89 43.54 42.60 41.51 41.35 40.64 39.47 38.97 38.02 37.51 37.12 37.09 35.94 34.96 34.41
45.71 46.33 46.02 45.61 44.18 44.00 44.07 43.36 42.41 41.84 41.77 41.55 40.55 39.55 39.05 38.22 36.82 36.02 35.55 35.30 34.36 32.97
46.02 45.56 45.67 44.23 43.45 43.36 43.92 42.76 42.21 41.32 41.09 40.39 40.43 38.58 36.23 35.52 33.20 32.88 32.70 33.10 33.63 31.90
45.32 45.20 44.18 43.18 42.47 42.27 42.41 41.80 41.03 40.62 40.17 39.47 39.22 33.65 32.64 32.03 29.79 31.59 31.35 29.84 30.22 30.48
44.88 43.64 42.55 41.89 41.11 40.86 40.43 40.86 40.23 39.78 39.03 37.94 33.02 33.19 32.09 30.00 29.07 29.23 29.95 29.31 28.72 29.55
43.26 41.85 41.48 40.52 40.03 40.05 39.95 39.41 39.28 38.38 38.37 37.70 34.71 32.84 31.37 29.68 27.35 28.46 29.61 29.59 29.25 27.92
41.72 40.51 39.60 39.19 39.06 39.10 38.04 38.35 38.34 38.18 37.13 36.13 31.26 32.13 30.68 28.53 27.77 28.74 28.58 30.25 29.94 29.09
40.41 39.35 38.49 38.80 38.05 38.19 38.32 38.26 38.27 36.89 36.19 33.22 31.96 31.39 30.76 28.72 27.32 27.02 27.71 28.37 28.13 27.86
38.75 38.48 38.90 38.26 37.69 37.08 36.56 36.05 34.42 33.44 33.81 33.97 32.71 29.85 30.91 29.99 27.02 26.60 26.95 26.12 25.79 26.66

GFSNIL_sfc_wetblb_033.txt.gz
Wetbulb
46.02 45.47 45.47 43.98 42.95 44.16 43.27 43.30 42.40 42.12 40.42 40.39 40.52 40.03 39.71 39.25 39.58 39.84 38.73 37.73 37.58 37.86
45.54 44.53 43.06 42.97 43.62 44.65 42.23 43.90 41.93 40.25 40.12 40.03 39.84 39.90 39.49 38.27 38.20 38.09 37.67 37.33 37.70 37.34
43.28 43.08 43.13 43.60 44.83 43.90 42.44 42.61 41.85 41.85 41.08 39.90 39.47 39.76 38.70 38.01 37.63 36.98 36.87 37.63 36.01 35.98
43.14 42.97 44.04 44.82 45.02 43.74 43.60 42.46 41.16 41.43 40.14 39.18 38.92 38.49 37.70 36.61 36.47 36.40 36.18 36.22 35.64 36.07
43.49 44.08 44.49 44.68 44.98 44.58 42.58 41.48 41.09 40.90 39.68 39.51 38.96 37.88 36.83 36.10 36.38 35.53 34.81 34.31 34.20 35.32
44.78 44.55 44.36 44.31 44.87 43.18 40.98 41.97 40.47 40.04 39.06 39.22 38.77 37.67 37.26 36.16 35.91 35.59 34.69 34.13 33.63 33.04
44.44 44.81 44.10 44.33 41.67 41.76 42.32 40.40 39.39 39.38 40.22 39.88 39.31 38.32 38.06 36.77 35.03 33.38 33.07 33.20 32.44 31.71
45.29 45.00 44.09 42.49 42.11 42.02 40.93 39.99 40.12 40.56 39.90 39.72 38.66 37.79 35.35 34.50 32.23 31.19 31.08 31.11 31.33 30.05
44.37 43.81 42.05 41.11 40.65 40.24 39.57 39.48 40.39 38.80 38.66 37.79 37.73 34.99 34.63 32.43 30.03 30.71 29.72 27.85 28.86 28.33
44.87 42.63 40.35 40.60 39.86 38.67 37.71 38.19 37.64 38.07 38.25 37.14 34.22 34.06 33.76 32.20 29.16 28.57 27.90 27.95 27.38 28.18
41.27 39.48 39.23 39.04 37.69 37.50 37.95 37.01 36.94 37.02 37.25 36.52 33.98 33.99 33.30 31.16 27.24 26.92 27.68 27.83 27.49 26.33
39.60 38.68 38.25 37.35 37.22 37.76 37.08 36.12 36.40 37.33 36.13 34.26 31.87 33.45 32.44 29.28 26.86 27.54 27.63 28.53 28.12 27.84
38.22 37.89 37.08 37.21 37.10 36.56 36.04 36.43 36.37 35.08 34.96 34.53 30.94 33.03 32.08 29.77 26.06 26.37 26.48 26.84 26.59 28.56
38.81 38.02 37.87 37.24 36.25 35.63 35.01 33.84 32.48 32.13 32.04 32.43 30.28 29.47 32.44 31.50 26.76 26.04 25.99 25.82 24.93 24.82

GFSNIL_sfc_wetblb_036.txt.gz
Wetbulb
47.79 47.59 45.43 45.71 44.84 44.38 42.92 42.30 42.67 42.39 42.03 40.77 40.11 39.16 38.00 37.32 38.36 37.33 36.72 35.82 35.77 36.10
45.98 45.98 45.53 46.29 46.53 44.63 42.76 43.26 42.42 41.78 39.99 41.02 39.78 38.57 37.34 37.54 37.17 36.17 36.17 35.59 35.14 35.29
45.32 46.14 45.62 44.89 44.53 43.12 43.12 43.04 42.07 41.66 40.99 40.39 38.94 38.29 37.23 37.14 36.45 36.02 35.47 35.78 34.51 34.41
43.40 44.13 44.29 44.27 44.15 43.35 43.24 42.82 42.48 42.25 39.65 39.49 38.42 37.85 36.81 36.00 35.74 35.34 34.82 35.08 35.49 35.02
43.03 45.26 44.96 44.11 44.01 43.77 43.66 43.81 41.59 41.12 39.13 38.51 37.64 37.05 36.03 35.89 35.97 35.08 34.86 33.96 33.55 33.61
43.14 43.97 43.59 43.78 44.12 44.75 42.64 41.07 39.86 39.25 38.00 37.86 37.82 37.37 36.48 36.41 35.69 35.17 35.58 34.45 32.57 32.10
43.83 44.12 43.68 42.78 43.90 42.04 41.17 39.51 39.87 38.82 38.63 38.64 38.65 38.39 37.79 36.69 35.35 34.49 33.60 32.45 31.52 31.15
44.16 44.32 44.33 42.14 41.52 40.75 40.37 39.88 39.77 38.38 38.44 39.11 38.79 38.29 37.06 35.93 33.52 31.80 31.16 31.16 30.82 29.51
44.12 41.42 41.57 40.69 39.79 38.09 39.67 39.30 38.03 38.56 38.55 38.24 38.22 36.35 36.38 34.02 31.22 31.28 30.14 28.26 28.72 28.43
43.44 41.85 40.33 39.77 39.34 38.30 37.58 37.51 37.13 37.15 37.04 36.67 36.62 35.56 35.85 33.91 29.98 28.94 28.13 27.17 27.43 27.64
40.30 39.21 38.84 37.59 37.64 37.89 37.59 37.06 36.29 35.82 35.79 35.73 35.47 34.66 34.83 32.87 28.34 27.37 27.80 27.51 27.65 26.22
38.33 37.76 37.93 37.49 37.36 37.66 36.09 35.74 34.93 35.30 35.01 34.16 33.66 34.27 33.96 30.94 27.26 26.64 27.33 28.89 28.67 27.41
38.45 38.33 37.75 37.50 36.28 35.35 35.16 34.41 34.20 33.82 33.58 34.05 31.67 33.74 34.16 31.49 27.83 26.91 27.27 27.43 27.11 29.38
39.59 38.92 37.61 35.66 34.92 33.37 32.87 32.45 31.27 30.66 31.04 30.85 31.00 30.15 34.15 33.61 27.22 27.06 26.39 26.41 25.53 25.43

GFSNIL_sfc_wetblb_039.txt.gz
Wetbulb
50.65 49.86 49.82 47.72 45.23 44.26 43.07 42.42 42.56 42.30 42.01 42.15 41.29 40.61 39.77 38.78 38.87 37.14 36.32 35.85 35.35 35.60
46.67 45.92 48.24 47.29 46.20 44.19 43.42 42.89 42.15 42.34 41.58 41.44 41.08 40.33 39.28 38.97 36.60 36.64 36.24 35.44 35.56 36.08
47.76 47.52 48.00 46.75 44.76 43.66 43.08 43.17 42.86 41.71 41.39 41.08 40.58 39.81 37.73 36.61 36.74 36.55 36.02 36.27 35.28 35.12
46.30 45.75 45.75 45.25 44.12 43.25 43.63 42.70 41.79 41.93 41.24 40.82 39.51 36.90 36.02 36.47 36.17 36.28 35.21 35.41 34.81 34.59
44.90 45.04 44.17 44.33 43.56 43.00 41.55 40.85 42.40 42.96 41.48 39.66 38.35 36.71 35.90 35.46 35.76 34.95 33.43 33.52 33.58 34.27
44.02 44.28 43.99 43.35 43.58 41.88 41.86 42.40 41.32 40.49 39.34 38.86 37.59 36.07 36.26 35.29 34.93 34.20 33.90 33.94 33.32 33.01
43.97 43.82 43.85 43.79 43.34 42.34 40.70 41.12 39.87 40.31 39.57 39.06 38.06 38.18 37.75 35.97 34.30 33.64 34.11 33.86 31.97 31.01
43.89 44.24 44.45 42.36 40.21 41.57 40.96 40.20 40.18 39.50 39.09 38.60 39.01 38.62 37.17 35.55 34.04 32.73 31.77 31.48 30.47 29.81
45.15 43.20 41.54 40.46 39.65 38.66 38.63 38.83 39.22 39.23 38.64 37.89 37.84 36.92 36.93 35.39 31.97 31.43 30.58 29.02 28.28 28.26
42.88 41.54 39.93 39.38 38.76 38.16 37.98 38.67 38.73 38.07 36.38 35.23 35.00 36.27 36.76 35.61 31.02 29.54 28.87 27.43 27.27 27.64
40.09 38.48 38.40 38.33 38.17 38.28 39.14 38.01 35.25 34.33 34.25 33.56 33.83 35.51 35.58 34.44 28.57 27.95 28.11 26.97 27.25 26.34
39.03 38.82 38.93 38.44 39.15 38.88 37.00 34.38 33.60 33.43 32.49 31.83 31.68 34.66 34.76 32.38 27.08 26.76 26.67 28.37 28.86 27.48
39.13 39.15 39.05 38.64 37.05 34.79 34.51 34.02 32.45 31.97 31.77 32.80 31.12 33.28 34.60 33.12 25.92 25.89 27.00 26.78 27.84 30.88
40.52 39.44 39.01 36.04 33.92 32.86 31.74 30.89 29.93 29.80 29.63 29.75 30.40 30.47 33.93 34.74 28.03 28.20 27.52 27.27 26.53 26.98

GFSNIL_sfc_wetblb_042.txt.gz
Wetbulb
54.53 53.65 52.55 51.28 48.74 45.89 42.49 40.80 40.63 41.42 42.14 41.24 42.21 41.88 40.36 39.23 39.55 38.38 36.89 35.95 35.50 36.20
54.51 52.85 52.30 50.59 48.14 44.26 42.72 42.83 42.30 42.69 42.82 43.10 41.74 40.98 39.94 39.62 39.31 37.86 36.21 36.02 35.07 34.51
51.25 51.62 50.65 49.04 46.07 43.81 44.37 43.27 41.93 42.29 43.50 41.63 41.04 40.56 39.35 38.50 37.72 35.87 36.43 35.79 34.52 34.36
48.32 48.44 49.18 47.77 47.54 45.82 43.84 41.98 41.09 41.43 41.29 40.74 40.22 39.27 38.40 37.58 36.55 36.41 35.59 35.52 34.15 33.96
48.91 48.56 47.31 46.25 44.41 42.20 40.90 41.62 41.58 41.40 40.75 40.55 39.48 39.19 36.98 35.82 37.42 35.43 33.99 33.49 33.90 33.86
46.03 46.23 44.69 43.30 43.16 42.87 42.47 41.77 41.93 41.32 41.03 40.76 40.64 37.65 36.68 36.97 35.89 34.95 34.21 33.43 32.66 32.77
44.05 43.43 43.90 44.01 42.84 43.10 42.50 41.01 40.69 41.09 40.32 39.64 38.67 38.15 37.78 36.68 35.77 34.08 33.78 33.23 33.11 33.08
43.03 42.64 43.23 42.53 40.80 40.88 39.72 39.60 39.84 40.08 40.68 40.97 39.52 38.56 38.35 37.16 35.05 33.22 32.31 32.60 32.23 30.95
43.17 42.40 41.23 39.46 38.50 38.91 40.07 40.77 41.04 40.68 40.15 39.69 40.05 38.29 37.28 36.00 33.28 32.60 31.55 30.74 29.41 29.39
42.03 40.13 39.94 39.51 39.05 38.83 39.41 40.42 40.25 39.51 39.32 37.74 35.66 35.58 36.53 36.18 33.14 30.95 30.15 29.11 28.95 28.41
39.79 38.64 38.82 39.42 39.25 39.47 39.84 39.46 38.74 36.51 34.69 33.52 33.45 34.97 35.64 34.75 31.81 29.36 29.15 28.42 27.96 27.73
39.11 39.10 39.14 39.15 39.86 40.22 38.95 36.89 35.65 33.88 32.49 31.46 31.59 33.97 34.66 33.65 29.43 27.76 27.64 27.79 28.02 28.04
40.33 40.50 40.07 39.37 38.43 36.59 35.51 33.89 32.96 31.81 31.34 32.15 30.99 33.03 34.45 33.92 27.89 26.98 27.42 26.97 28.57 31.48
40.74 40.24 39.68 37.83 34.62 33.31 31.96 30.60 29.79 29.95 29.92 29.61 30.02 30.03 33.76 34.50 29.37 27.99 27.70 27.57 27.57 28.38

GFSNIL_sfc_wetblb_045.txt.gz
Wetbulb
58.68 57.96 57.07 55.14 53.06 51.40 51.03 50.63 49.56 47.63 46.55 45.97 45.07 44.84 43.86 43.48 43.23 44.92 45.23 44.74 44.66 44.46
58.57 58.22 55.18 54.08 53.67 51.61 50.82 47.68 47.82 46.41 46.55 46.95 44.49 45.23 43.10 43.42 44.19 44.69 44.72 45.18 44.95 43.42
59.57 58.30 56.88 55.53 54.09 52.16 49.70 47.83 46.53 46.25 46.37 45.45 45.38 44.10 42.71 43.94 43.96 44.00 43.67 43.45 43.21 42.53
58.54 57.72 56.98 54.88 53.75 50.53 48.97 47.41 45.91 45.87 45.72 44.89 42.52 42.75 41.46 42.04 43.06 42.24 43.27 42.83 42.29 41.84
56.76 54.94 54.43 53.00 52.16 50.77 48.03 46.25 45.39 45.12 43.63 42.37 42.25 43.00 41.97 41.86 40.05 42.08 41.90 41.81 41.75 41.19
54.29 52.64 52.01 51.11 49.77 47.59 45.89 46.07 43.85 43.30 42.06 41.81 42.17 43.25 41.26 42.17 42.95 42.14 41.76 41.89 41.18 41.13
50.89 51.04 50.00 48.40 48.01 47.22 46.07 44.19 43.69 43.58 43.18 42.60 41.00 42.56 42.38 42.00 41.21 41.15 40.97 41.11 40.80 40.58
48.08 47.98 47.71 46.28 44.14 44.15 42.72 41.91 42.40 41.46 42.37 42.44 42.05 41.17 40.67 41.59 41.92 42.11 41.11 40.73 39.85 40.07
46.52 44.29 41.77 40.70 40.34 40.63 41.03 42.02 43.04 41.82 41.19 41.21 41.10 39.33 39.10 39.22 41.25 39.86 39.07 39.18 39.61 39.57
42.58 40.69 40.46 40.97 41.06 41.41 41.24 42.34 41.72 41.66 41.51 40.42 41.21 38.34 37.48 36.23 38.93 39.11 39.24 38.90 38.94 38.21
40.86 40.03 40.62 40.85 41.06 41.16 41.14 40.81 40.83 40.71 41.13 41.52 40.03 35.74 35.50 34.95 38.65 38.40 38.23 37.91 38.06 37.94
41.83 41.09 41.02 40.71 40.55 41.04 40.73 40.77 41.78 40.98 39.99 38.81 38.40 34.99 34.60 35.11 37.80 36.96 36.76 37.53 36.92 36.54
42.34 41.67 41.61 41.20 39.70 38.98 39.75 38.95 38.60 37.78 38.38 36.56 37.30 35.88 34.57 35.03 36.99 35.79 36.03 36.94 36.03 32.44
41.00 40.15 39.34 38.11 38.02 38.50 37.87 37.15 36.93 35.59 37.03 36.90 36.41 36.67 34.31 34.48 35.74 35.90 35.57 35.18 35.28 35.70

GFSNIL_sfc_wetblb_051.txt.gz
Wetbulb
65.26 65.59 64.66 64.26 63.76 62.97 62.36 62.25 59.71 56.18 55.10 55.53 55.15 55.30 52.46 48.79 50.34 50.24 48.75 47.27 45.41 45.77
65.13 65.80 64.71 64.74 65.15 63.91 63.38 58.03 55.79 54.54 55.43 55.30 55.25 51.00 48.75 48.69 48.14 44.94 47.72 45.61 46.19 45.93
65.05 64.96 64.48 64.14 63.36 62.80 60.08 57.54 56.16 55.79 55.06 53.94 49.63 49.81 49.22 45.93 45.32 44.50 44.87 45.02 44.09 44.03
63.67 63.74 62.54 61.81 61.53 59.74 59.27 58.24 56.43 55.96 53.88 49.96 50.42 48.68 44.64 45.08 43.93 43.30 43.99 43.46 43.17 44.10
62.91 62.18 61.31 60.70 59.59 59.09 58.15 55.07 53.33 50.68 49.85 47.70 45.07 44.90 43.08 43.11 43.60 42.58 42.31 43.57 43.00 43.80
59.82 59.27 57.65 55.55 53.90 53.43 52.45 50.94 49.74 48.01 46.79 45.46 44.33 43.32 43.35 43.06 42.93 42.84 42.85 42.74 43.14 44.46
57.49 56.34 55.05 53.87 52.23 50.59 48.82 47.01 46.68 46.84 44.69 43.55 42.69 42.86 43.02 42.80 42.72 43.11 43.41 43.56 43.61 43.59
54.70 54.71 53.42 52.31 51.42 49.94 48.23 47.23 45.80 44.36 44.05 43.46 43.47 43.44 43.08 43.51 43.41 42.03 42.12 42.82 43.14 44.17
55.07 54.63 52.80 51.62 51.07 50.39 48.74 48.51 47.22 46.37 45.63 45.09 44.81 39.78 39.54 40.93 41.99 41.73 41.66 42.32 43.37 45.33
51.32 49.92 49.12 48.99 48.53 48.21 47.68 48.03 46.44 45.46 45.18 45.58 44.59 39.18 39.21 38.39 42.51 42.53 43.00 42.91 42.73 42.35
49.51 48.73 48.65 48.55 47.43 47.02 47.14 46.68 46.18 44.44 43.28 43.74 43.79 39.30 39.05 37.04 40.98 41.20 41.67 42.10 42.14 42.09
49.13 48.36 47.82 47.01 46.22 45.87 45.43 42.91 44.75 44.64 43.88 43.73 44.17 39.09 36.56 36.28 40.77 40.17 40.21 41.43 41.62 41.57
48.98 47.36 45.25 44.72 42.94 41.99 44.49 44.56 44.75 43.21 43.18 38.29 41.62 37.35 36.58 36.95 38.46 37.62 38.55 39.34 39.96 37.11
46.12 45.13 44.14 42.13 43.79 44.26 43.37 42.88 41.77 40.33 41.18 41.16 40.45 40.31 36.13 35.16 35.92 34.90 32.83 34.00 35.79 37.81

GFSNIL_sfc_wetblb_054.txt.gz
Wetbulb
62.69 62.73 61.71 61.30 60.87 61.04 60.91 60.56 60.51 59.48 58.62 56.47 55.35 54.64 53.41 50.67 48.31 48.32 47.81 47.43 44.37 45.01
61.89 61.36 61.56 61.72 62.04 61.04 61.35 60.30 58.56 58.38 55.31 54.41 54.19 53.21 49.86 48.64 48.44 47.54 46.27 45.67 44.49 44.28
61.76 61.14 60.73 59.90 62.44 61.89 59.65 57.48 56.23 55.61 55.06 53.96 53.41 49.53 48.39 47.34 45.10 44.75 44.44 44.63 43.21 43.64
60.50 61.06 62.22 62.35 61.24 61.44 59.10 57.99 56.42 55.35 54.68 52.40 49.07 48.71 45.72 44.69 43.84 43.03 43.28 43.16 42.54 42.95
63.00 62.73 61.62 60.37 59.26 58.68 57.32 56.79 55.63 53.27 50.39 48.52 47.06 44.89 43.84 43.05 43.32 42.98 42.28 42.27 42.74 42.93
61.09 58.58 56.57 55.19 54.29 53.43 52.01 50.29 49.61 48.04 46.95 44.98 45.02 43.27 43.21 42.95 42.28 42.17 41.97 42.58 42.73 42.33
56.56 54.89 53.67 52.22 50.72 49.16 48.32 47.15 46.84 46.40 45.29 44.20 43.77 43.23 43.12 42.56 42.02 42.17 42.60 43.04 42.70 42.77
54.27 53.33 51.98 50.41 48.93 47.88 47.06 46.22 44.98 44.12 43.41 43.32 42.99 42.98 42.74 42.69 42.15 42.06 42.21 42.61 43.04 42.94
53.70 53.28 52.12 49.90 48.53 47.34 45.98 45.06 44.60 44.14 43.37 42.38 43.68 40.19 40.14 41.71 41.67 41.74 41.19 40.58 41.37 42.23
51.96 50.40 49.01 48.83 47.71 46.24 45.86 45.78 45.25 44.29 43.87 43.77 42.65 39.22 39.61 38.82 41.36 40.69 40.27 39.99 39.98 39.78
49.14 47.89 47.84 47.45 46.15 45.28 44.97 44.57 44.62 43.71 42.95 42.82 43.04 39.16 39.16 37.85 38.86 37.02 37.71 37.68 37.93 37.23
48.35 47.60 46.73 45.72 44.97 44.49 43.85 42.69 43.45 43.79 42.60 41.82 41.68 39.05 37.48 35.31 36.21 36.11 35.25 37.57 37.02 36.74
48.33 46.95 44.48 44.05 43.38 42.78 43.32 44.17 43.51 41.83 40.70 37.54 36.98 35.95 34.90 35.42 33.33 31.34 29.58 31.47 33.08 33.65
45.81 44.84 44.10 42.29 42.30 42.74 41.31 40.72 37.61 36.83 37.41 38.56 34.43 32.56 31.54 31.01 27.83 26.25 26.49 26.76 27.08 27.86

GFSNIL_sfc_wetblb_057.txt.gz
Wetbulb
60.75 60.62 59.36 58.80 57.97 58.76 59.26 59.82 59.97 59.23 58.39 57.45 56.79 55.25 54.24 53.64 51.25 48.85 47.88 47.82 46.09 44.78
61.28 59.38 60.27 59.76 60.26 59.31 59.21 58.88 58.31 58.33 57.58 56.50 55.63 54.85 52.47 49.91 48.28 47.98 46.59 44.89 45.09 44.56
60.52 60.52 59.59 59.22 58.95 59.29 57.40 55.58 55.40 55.08 55.72 54.75 53.51 50.56 49.34 48.05 47.28 46.20 45.08 44.18 44.26 44.08
60.28 60.45 59.38 57.82 56.99 58.42 56.30 55.98 55.72 55.35 53.88 52.80 50.20 48.70 47.31 45.65 45.16 44.62 43.82 43.77 43.83 43.37
59.74 59.28 58.85 58.82 58.44 58.81 57.34 56.40 55.43 54.41 52.87 49.41 47.68 46.29 45.24 44.45 43.69 43.41 42.75 42.64 42.48 42.53
59.85 59.66 58.56 55.94 54.65 54.22 52.90 51.54 50.92 49.78 48.36 46.76 45.45 44.45 43.95 43.74 43.54 43.00 42.66 42.54 42.22 42.89
56.20 55.10 52.79 51.55 51.22 50.39 49.60 48.35 47.53 47.08 45.77 45.16 44.09 43.77 43.73 42.98 42.13 41.99 42.13 42.57 42.84 42.72
52.78 52.04 50.74 49.17 48.20 47.70 47.38 46.83 45.69 44.61 43.95 43.75 43.41 43.16 42.51 42.49 41.59 41.52 41.80 42.25 42.84 42.86
51.92 50.41 49.08 47.66 46.85 45.98 45.20 44.57 44.32 43.81 43.01 42.14 42.63 39.30 40.05 40.85 41.73 42.06 41.50 40.48 40.67 39.76
51.44 49.19 48.21 47.09 45.87 44.67 43.26 42.59 41.42 40.80 40.78 40.13 39.81 39.37 39.79 39.42 41.42 40.21 38.11 37.12 37.70 38.79
48.00 47.37 46.57 44.50 43.45 42.39 42.06 41.33 41.29 42.75 43.13 42.51 41.76 38.82 38.65 36.95 36.58 35.83 34.72 34.40 34.02 32.88
46.29 45.06 44.04 43.18 43.56 42.61 42.32 42.48 42.42 42.49 40.23 39.70 40.10 37.73 37.40 35.64 32.88 32.45 30.44 32.01 31.54 31.38
45.80 44.32 42.71 42.93 42.79 42.53 41.23 42.08 41.80 39.87 37.28 35.23 32.84 34.03 34.78 31.96 27.42 25.63 25.34 27.15 28.82 29.96
43.73 42.81 41.69 41.10 40.02 40.39 39.00 36.37 33.92 33.49 33.92 31.84 30.46 30.39 31.14 29.62 25.37 25.18 25.65 24.88 24.61 24.92

GFSNIL_sfc_wetblb_060.txt.gz
Wetbulb
56.84 57.73 58.16 57.01 55.92 55.65 56.54 57.96 59.25 58.96 58.76 57.91 57.51 57.19 56.23 54.51 53.35 52.12 50.80 48.98 48.46 45.32
56.95 57.59 58.59 59.62 57.05 56.75 57.87 57.97 57.46 58.00 58.69 57.31 57.07 57.11 54.91 52.64 49.07 49.13 48.42 48.15 46.66 44.92
58.13 59.09 59.32 58.78 57.66 58.44 57.86 57.08 56.25 56.87 57.91 57.01 56.63 55.09 52.95 50.55 48.34 47.75 46.38 46.18 44.84 44.78
58.81 59.43 59.19 58.88 57.92 58.27 57.51 55.75 54.36 55.63 55.75 55.37 53.67 51.58 49.08 47.57 46.92 45.77 44.65 44.66 44.52 44.33
59.01 59.47 58.99 58.94 58.52 58.00 56.35 55.17 54.69 54.65 53.11 51.59 49.72 48.22 46.62 45.81 45.59 44.42 43.61 44.00 43.83 43.56
59.14 59.31 59.64 58.88 59.63 59.36 55.67 54.32 53.58 53.57 52.07 49.01 47.30 45.67 45.26 44.49 44.33 43.97 43.69 43.59 42.80 42.70
58.87 59.06 58.51 56.73 54.64 54.02 53.36 51.15 50.32 49.55 48.24 46.35 44.97 44.78 44.52 44.28 43.66 43.17 42.64 42.66 42.66 43.03
57.96 55.55 53.46 52.62 50.91 49.39 48.93 47.93 47.00 46.44 45.71 44.50 44.19 44.18 43.72 43.28 42.04 41.65 41.47 41.86 42.45 42.66
53.09 51.54 50.33 49.21 48.92 47.48 46.40 46.48 45.19 44.59 44.46 44.02 43.65 39.32 40.07 41.29 41.04 41.26 41.21 40.88 41.23 40.10
51.13 49.05 48.23 47.84 46.69 45.13 44.48 44.46 44.55 42.94 42.62 41.98 41.45 38.84 39.29 38.95 40.91 41.25 39.94 37.60 34.77 34.77
49.42 47.40 46.69 46.09 44.89 45.09 44.25 42.18 41.70 41.24 40.30 39.42 39.38 38.87 38.03 37.11 36.60 33.50 32.73 31.88 31.09 29.63
48.09 46.62 46.09 44.19 42.98 41.40 40.43 40.32 40.68 41.13 40.03 38.95 38.17 37.37 35.23 34.60 31.19 29.81 28.48 29.41 29.14 28.00
46.83 45.21 43.24 41.61 40.85 40.99 41.36 41.59 41.52 39.42 37.52 36.99 36.18 35.04 34.45 31.35 27.23 25.17 25.06 26.40 26.40 28.16
43.59 42.69 42.28 41.49 41.65 40.95 38.21 36.15 34.14 31.63 30.59 30.34 30.54 30.57 31.16 29.78 25.88 25.67 25.56 24.52 24.00 24.48

GFSNIL_sfc_wetblb_063.txt.gz
Wetbulb
52.67 53.43 53.72 54.12 53.67 53.65 54.29 54.98 55.37 55.96 57.57 57.94 57.63 56.58 56.30 56.10 54.73 53.62 53.11 51.97 50.04 49.79
53.11 54.06 53.92 54.97 55.47 55.40 54.40 55.25 55.33 56.12 56.74 57.02 56.98 56.98 56.44 56.75 55.78 52.96 51.80 50.81 50.07 49.15
52.75 53.95 55.63 56.26 57.04 57.18 56.63 56.80 57.08 56.21 56.64 57.34 57.04 56.79 57.43 56.58 52.64 50.30 48.60 48.11 47.03 46.31
52.63 53.61 55.45 56.74 57.76 58.01 57.34 57.17 56.69 56.91 56.92 57.19 56.87 55.24 54.29 51.85 49.37 48.34 46.20 45.64 45.93 44.59
56.09 57.45 57.73 58.17 58.70 59.13 58.07 57.19 57.05 55.58 55.48 54.96 54.05 52.59 50.89 48.98 47.78 46.16 45.20 44.83 44.85 44.41
57.97 58.50 58.61 58.75 59.45 58.95 58.39 56.80 55.22 54.51 53.39 52.63 50.56 49.75 48.16 47.28 46.13 45.50 44.98 44.64 44.39 43.81
58.11 58.58 58.60 58.93 59.13 58.87 57.97 55.89 55.13 54.46 52.26 49.93 47.75 47.01 45.65 45.20 44.47 43.91 43.79 43.51 43.46 43.23
58.26 58.71 58.76 58.01 57.26 53.91 54.96 54.50 53.07 49.19 47.02 46.56 46.54 46.04 44.84 44.61 43.49 42.88 42.18 42.25 42.59 42.77
58.05 57.33 56.86 55.36 51.69 49.74 48.63 49.36 47.19 46.45 45.46 45.49 45.82 39.99 40.63 42.22 42.30 41.88 41.35 40.95 41.46 38.42
56.25 53.62 51.83 50.17 49.46 47.49 47.33 47.48 45.76 44.44 44.61 44.82 43.21 38.96 39.29 39.17 41.59 41.26 40.50 38.47 36.65 34.02
52.17 50.91 50.00 48.90 46.88 46.07 45.83 44.36 43.45 43.99 44.04 43.20 41.08 38.09 38.04 36.99 37.35 34.70 33.04 31.58 31.16 29.31
49.94 48.47 47.21 45.68 45.24 44.99 42.87 42.77 42.37 42.95 41.24 40.57 39.02 36.18 35.81 34.64 31.35 29.08 28.04 27.85 27.04 26.75
48.55 46.90 44.72 44.14 44.38 42.45 42.71 42.35 41.20 39.42 39.71 38.27 36.88 35.49 34.61 31.47 28.07 25.59 25.30 25.84 26.15 28.35
46.30 44.72 43.76 42.09 41.78 41.41 40.20 37.14 33.74 32.16 33.47 33.20 32.57 31.64 32.65 30.93 26.56 25.71 24.80 24.17 24.13 24.40

GFSNIL_sfc_wetblb_066.txt.gz
Wetbulb
51.71 51.82 51.76 51.14 51.83 50.74 51.05 51.28 52.11 52.99 54.57 55.12 55.48 55.24 54.60 54.65 55.21 55.23 54.65 54.25 53.51 52.95
52.03 51.47 51.72 51.49 52.25 51.68 51.80 52.67 52.38 52.92 53.11 54.23 54.78 54.78 55.82 56.16 55.45 55.41 54.73 53.52 52.93 51.75
51.47 51.64 52.35 52.20 52.21 54.04 53.89 53.50 53.17 53.47 53.76 54.13 54.34 54.74 55.84 56.20 56.42 56.40 54.63 52.40 50.56 49.85
51.56 51.59 52.40 53.21 53.56 54.73 56.18 56.53 55.99 56.36 56.47 56.50 56.94 55.52 55.64 56.44 54.27 52.82 51.58 50.15 49.26 48.18
52.01 52.49 52.30 52.90 54.37 55.49 55.57 57.23 57.38 57.69 57.03 56.64 56.30 56.12 55.64 53.91 50.87 50.80 48.34 47.06 46.97 46.03
52.55 52.49 52.67 53.45 54.09 55.11 55.63 56.26 56.70 57.10 56.64 55.98 54.73 53.71 53.18 52.42 50.45 49.15 47.85 46.52 45.87 45.24
53.30 53.24 53.70 54.24 54.54 55.77 57.19 57.68 57.40 57.23 56.66 54.76 52.98 51.50 50.09 49.46 46.86 46.01 45.46 45.33 45.07 44.58
54.99 55.04 55.11 55.23 55.80 55.47 57.33 57.90 57.81 55.58 52.08 49.50 49.21 48.25 47.53 46.91 45.50 44.37 43.57 43.46 43.49 43.33
55.89 56.15 56.11 56.78 57.27 56.92 56.77 56.66 54.77 52.48 51.86 47.85 47.51 44.57 42.76 44.66 44.37 43.34 42.28 41.35 39.45 38.39
56.08 56.35 56.74 57.27 56.10 53.83 53.67 51.61 49.44 48.02 48.09 45.66 43.66 41.47 41.95 40.42 43.14 41.89 41.08 37.99 35.32 33.88
55.65 55.64 53.05 51.72 51.16 49.24 47.76 48.09 46.98 46.64 44.85 43.72 41.12 39.76 39.58 39.20 38.75 36.45 35.35 34.53 33.27 30.62
54.66 51.66 50.22 48.63 47.18 45.94 45.52 44.67 43.97 43.66 43.16 40.53 38.74 36.84 36.21 35.33 32.93 30.94 29.58 29.71 29.76 29.05
51.19 49.42 48.21 46.03 44.78 44.09 43.96 42.07 40.98 40.14 40.00 37.21 36.35 35.42 34.52 32.79 30.37 27.40 26.94 27.69 27.88 28.11
47.78 45.69 44.86 43.02 42.96 42.25 39.96 37.70 35.35 33.86 34.34 34.44 34.31 33.77 33.31 32.20 29.71 27.29 25.09 24.06 23.52 24.91

GFSNIL_sfc_wetblb_069.txt.gz
Wetbulb
56.34 56.57 57.23 57.38 56.40 56.27 57.03 57.23 57.96 58.35 58.97 59.29 59.66 59.90 60.34 60.39 60.38 60.28 60.04 59.37 58.60 55.43
55.84 56.11 56.13 56.80 57.08 57.70 57.53 57.53 57.87 58.15 58.19 58.95 59.38 59.79 60.38 59.95 59.91 59.79 60.18 59.69 56.37 56.69
55.77 56.09 56.64 56.93 56.47 57.10 57.75 57.25 57.43 57.77 57.94 58.30 58.80 59.31 59.61 59.80 60.19 59.36 59.96 59.08 55.63 56.67
55.70 55.73 56.01 56.20 56.61 56.38 57.10 57.31 56.71 57.60 57.90 57.73 58.13 58.94 59.03 59.22 59.52 58.30 58.08 55.59 55.21 54.84
55.89 55.45 55.42 55.39 55.44 55.98 56.01 57.06 57.44 56.57 57.19 58.58 58.48 59.14 57.93 56.31 55.49 55.28 54.80 53.46 52.71 52.93
55.31 54.62 55.00 55.28 56.22 57.00 57.25 57.86 57.99 57.79 57.87 57.61 55.98 56.20 56.11 56.01 55.59 54.04 54.16 53.16 50.09 48.85
55.71 55.31 55.76 56.40 56.55 56.95 57.30 57.12 57.29 56.36 57.72 58.23 57.72 56.06 55.87 55.49 54.94 53.02 51.58 49.73 48.95 47.22
56.59 56.19 56.11 56.15 56.49 56.78 56.91 57.09 57.70 57.68 58.28 58.17 56.29 54.54 53.56 52.83 51.93 48.30 46.95 46.51 46.35 45.84
56.22 56.18 55.73 55.86 55.90 56.53 56.93 58.03 59.08 58.98 58.05 52.89 52.29 44.64 44.46 47.92 48.34 46.08 45.30 42.99 41.88 40.97
56.18 56.09 56.69 56.09 56.22 56.87 57.29 58.33 58.64 57.32 55.57 52.45 51.23 42.10 43.01 43.72 46.34 44.25 42.81 39.37 37.22 35.58
56.78 56.61 57.04 57.26 56.91 56.90 57.43 56.05 54.48 51.75 50.00 46.86 43.51 40.46 41.18 40.98 42.80 40.43 38.36 36.60 34.95 33.20
57.14 57.07 57.51 57.25 54.65 49.13 48.95 47.34 46.60 46.17 44.51 41.90 40.24 38.14 37.57 38.05 36.21 33.97 32.56 31.90 31.64 30.97
57.71 57.19 53.54 50.93 47.56 46.13 46.04 43.80 43.16 41.59 41.04 38.35 37.11 36.17 36.02 35.53 32.99 30.09 29.04 29.57 29.00 29.68
51.55 49.76 47.96 45.03 44.82 43.40 41.45 39.29 37.02 35.20 35.73 36.12 35.24 34.67 34.63 34.04 31.52 28.87 27.69 26.86 26.68 28.00

GFSNIL_sfc_wetblb_072.txt.gz
Wetbulb
60.16 59.91 59.26 59.40 59.23 59.59 59.15 58.86 60.20 60.05 58.94 59.38 59.36 59.11 60.59 60.92 61.28 61.94 61.77 61.64 61.53 61.18
60.32 60.74 61.17 60.75 60.62 60.75 60.68 60.49 60.77 60.88 60.55 60.40 60.56 61.57 61.96 61.22 61.13 61.55 61.78 61.75 62.06 61.37
59.80 59.97 60.52 61.23 61.29 61.74 61.59 61.43 61.47 61.43 61.23 61.34 61.01 61.02 61.18 61.19 61.46 60.97 61.98 61.33 61.50 61.12
59.78 59.64 60.58 61.21 61.20 61.31 61.64 61.27 60.65 60.22 60.65 60.08 60.67 60.39 60.67 60.53 60.41 60.12 60.75 61.52 60.57 59.80
60.02 59.79 59.63 60.12 61.17 62.10 61.54 61.89 61.50 60.30 59.63 59.74 59.79 60.64 60.89 60.17 60.01 60.08 60.07 60.20 59.33 57.05
59.57 59.67 59.92 59.71 59.72 60.26 60.26 60.50 60.68 60.43 60.41 59.96 60.34 59.77 59.70 60.67 59.95 59.93 59.43 58.95 56.18 55.12
59.29 59.90 59.60 59.65 59.07 59.74 59.59 58.97 59.08 59.80 59.90 60.21 59.44 58.65 58.86 57.09 56.58 56.23 55.61 55.60 55.80 54.96
59.93 59.83 59.51 59.19 59.12 59.55 59.67 59.42 59.47 59.68 60.22 60.16 58.37 56.56 56.99 57.94 57.65 55.11 54.26 52.85 52.24 52.50
60.02 59.88 59.33 59.05 59.00 59.53 59.21 59.21 59.62 60.00 59.62 59.18 58.24 49.58 46.79 54.27 56.25 54.12 51.64 48.94 46.91 46.37
59.62 59.46 59.56 59.23 58.86 58.63 58.79 59.53 59.38 58.89 58.84 59.48 59.76 43.87 44.41 44.23 55.56 52.22 48.99 45.34 42.40 39.39
59.14 58.98 59.35 59.13 58.61 58.84 59.23 58.91 59.22 59.27 59.37 59.09 57.02 42.60 42.60 40.60 48.34 44.05 42.52 41.56 39.26 35.53
59.79 58.92 58.99 58.81 59.28 58.90 58.03 57.58 56.92 55.84 53.98 52.69 47.00 40.78 40.55 41.22 39.29 36.10 34.77 35.27 34.77 33.72
60.15 59.59 59.25 59.46 57.94 52.53 54.11 50.39 45.47 42.98 43.22 39.94 39.94 38.66 38.40 38.87 35.49 32.14 31.51 31.90 31.97 32.39
60.22 59.87 58.83 52.41 51.47 48.53 43.59 41.06 39.16 38.35 37.30 37.49 36.92 35.94 35.87 35.48 33.65 30.71 29.23 28.37 28.30 29.52

GFSNIL_sfc_wetblb_075.txt.gz
Wetbulb
60.70 60.51 60.98 59.84 59.81 60.22 58.38 58.17 58.55 58.18 57.62 57.03 57.56 59.67 59.64 59.05 60.36 58.79 60.54 60.87 61.62 60.53
61.51 61.33 60.45 61.26 61.50 60.90 60.81 60.90 60.48 59.39 57.81 57.60 57.68 59.10 60.83 57.92 58.49 59.00 59.21 59.63 61.84 60.85
61.89 62.12 62.22 62.27 61.75 61.51 61.79 61.75 60.44 60.17 59.60 59.06 58.59 59.65 61.02 60.39 60.16 57.81 58.47 60.86 61.43 61.70
62.30 62.58 63.34 62.71 62.85 62.89 62.66 62.12 61.89 61.28 60.77 60.36 60.27 60.87 60.58 60.13 60.76 59.85 60.18 60.60 60.83 60.76
62.55 62.07 62.32 62.73 63.44 63.58 63.04 63.04 62.39 61.99 61.35 61.08 60.76 61.16 61.02 60.28 60.00 60.00 59.78 60.52 60.88 60.16
62.60 62.29 61.85 62.35 63.15 63.20 63.40 62.81 61.95 61.64 61.30 60.88 60.84 60.69 60.93 60.60 60.71 60.61 60.43 60.75 60.53 60.07
62.35 62.39 62.30 62.38 62.35 62.53 62.72 62.47 62.25 61.94 61.72 61.36 61.27 61.02 61.00 60.66 60.60 60.65 60.07 60.32 59.96 60.17
62.70 62.50 62.17 62.20 62.04 62.16 62.10 62.23 62.39 62.11 61.97 62.19 61.31 60.67 60.60 60.28 58.99 57.77 57.78 57.60 57.36 57.00
62.23 62.09 62.17 62.30 62.19 61.81 61.68 61.52 61.74 61.15 61.37 61.20 60.57 51.13 46.66 53.01 56.55 55.46 55.37 55.16 56.31 55.47
62.65 62.25 62.27 61.98 61.29 61.10 60.90 61.35 60.74 60.57 60.77 60.48 61.15 46.48 45.50 44.70 57.00 55.70 56.07 56.26 53.43 46.79
62.23 62.04 62.20 62.03 61.49 61.43 61.25 60.67 60.59 60.78 61.12 60.79 60.38 43.73 44.91 42.97 56.11 57.07 55.42 51.12 46.52 41.84
61.96 61.51 61.71 61.28 61.52 61.62 61.16 60.66 60.22 59.99 59.36 58.55 58.08 41.71 42.98 45.05 43.95 39.19 36.97 37.31 37.71 37.53
62.19 61.63 60.89 61.68 61.55 61.39 60.76 59.25 56.43 48.47 47.31 42.73 45.34 39.72 40.79 41.38 38.37 33.87 33.30 33.76 33.64 33.94
61.54 61.13 60.48 60.60 61.80 60.93 55.00 47.51 42.21 38.67 38.26 38.06 38.27 37.07 38.41 37.58 34.57 32.13 30.53 30.02 29.80 30.88

GFSNIL_sfc_wetblb_078.txt.gz
Wetbulb
59.59 58.90 58.77 58.52 58.29 57.18 56.40 56.59 57.36 57.47 57.57 57.15 56.99 57.05 57.02 56.82 57.05 57.15 57.17 56.52 56.37 56.22
60.62 60.13 58.47 58.99 59.05 58.71 57.78 57.17 56.56 57.16 57.38 57.06 56.34 56.30 56.28 56.33 56.48 57.09 57.18 56.86 56.62 57.02
59.38 60.26 59.72 59.68 58.76 58.91 58.61 58.21 56.80 56.60 57.23 57.28 56.17 56.01 55.80 55.85 56.73 56.65 56.98 57.39 57.12 56.89
59.47 59.83 59.53 59.32 59.84 59.25 59.60 58.85 58.21 57.76 57.23 56.94 56.21 56.07 55.63 55.85 56.51 56.25 55.95 55.98 55.76 56.59
60.56 60.18 59.74 60.07 59.96 60.33 59.65 59.79 58.93 58.95 57.95 57.42 56.98 56.36 55.77 55.69 56.46 56.16 55.71 55.80 55.67 55.87
60.13 60.21 59.91 60.15 60.67 60.60 60.19 59.74 59.47 59.20 58.46 57.89 57.34 56.94 56.49 56.01 56.03 56.41 56.37 56.41 56.22 56.28
59.88 60.01 60.02 60.28 60.44 61.05 60.87 60.17 59.75 59.52 59.37 59.01 58.68 58.15 57.59 57.03 56.50 56.63 56.96 56.95 56.85 56.87
60.15 60.64 60.59 60.16 60.04 60.27 60.53 60.66 60.36 59.60 59.10 58.95 58.61 58.49 57.91 57.43 56.91 56.52 56.79 57.17 57.00 57.10
60.12 59.94 60.24 60.22 59.88 59.75 59.52 59.67 59.92 59.74 59.28 58.09 58.66 50.68 47.38 53.54 57.02 56.68 56.31 55.90 56.00 54.07
60.80 59.98 59.75 60.31 59.91 59.28 58.75 58.78 58.77 59.01 59.11 58.64 58.76 47.39 46.14 45.11 56.57 56.35 55.58 53.84 54.24 51.34
61.42 60.54 60.51 59.89 59.51 59.15 59.08 58.37 58.20 58.22 58.45 58.24 58.53 46.35 44.29 42.97 54.11 56.24 53.64 52.49 52.93 52.76
61.13 60.56 60.32 59.85 59.46 59.26 58.72 58.26 58.12 58.10 57.40 56.91 57.00 44.87 42.65 43.66 52.63 49.15 39.22 38.43 39.16 38.75
61.02 60.57 59.85 59.73 59.33 59.34 59.30 58.37 57.97 56.50 52.04 48.66 53.00 39.87 40.38 45.03 42.58 35.16 33.13 33.05 33.82 34.18
57.02 59.99 59.83 59.27 59.03 58.67 58.16 50.35 42.35 37.98 36.86 37.37 38.43 38.83 40.47 40.24 37.98 34.29 32.08 31.10 30.84 31.79

GFSNIL_sfc_wetblb_081.txt.gz
Wetbulb
58.99 58.19 57.90 57.85 57.51 56.87 56.87 56.61 56.38 56.87 57.79 58.12 58.36 58.06 57.78 57.89 57.91 56.86 56.70 55.46 55.46 55.39
57.80 57.74 57.56 58.19 58.19 57.90 57.63 57.50 57.07 56.22 56.38 57.22 57.16 57.28 56.75 56.73 55.83 56.26 56.52 55.89 54.94 55.63
58.53 58.49 58.56 58.48 57.63 57.95 57.68 56.32 56.50 56.32 56.65 56.85 56.60 56.48 56.07 56.02 55.78 55.72 56.05 56.03 55.55 55.50
59.13 59.63 59.69 58.85 58.66 58.68 58.60 57.30 55.77 55.69 55.62 56.04 55.97 55.51 54.64 54.73 54.69 55.07 55.56 56.07 55.93 55.65
57.62 58.20 58.69 58.94 58.64 59.01 58.55 58.44 57.21 56.40 54.95 55.19 55.75 55.48 54.72 54.05 54.61 54.16 54.51 55.24 55.28 55.23
57.13 57.27 57.25 57.64 58.01 58.97 58.89 58.84 58.45 57.50 56.42 55.02 55.24 55.17 54.92 54.62 54.30 54.11 54.24 54.92 54.84 54.52
57.64 57.66 57.89 58.09 57.86 58.31 58.50 58.08 57.65 57.56 57.16 56.83 56.24 55.83 55.40 55.01 54.21 54.26 54.36 54.56 54.89 54.91
58.27 58.82 58.65 58.52 58.43 58.86 58.79 58.67 58.61 58.06 57.72 57.43 57.08 56.80 55.97 55.59 54.65 54.00 53.79 54.19 54.83 55.22
57.79 58.30 58.18 58.27 58.10 58.09 58.64 58.82 58.75 58.16 57.86 57.26 57.59 50.85 47.04 52.53 55.22 54.77 53.91 53.34 54.18 54.90
58.61 57.91 58.26 58.58 58.29 57.76 57.69 58.01 58.19 58.44 58.15 57.63 57.70 47.09 46.26 45.21 56.05 55.44 54.85 54.41 54.39 54.22
58.81 58.45 58.07 57.96 58.01 58.06 58.03 57.23 57.14 57.50 57.74 57.85 57.77 46.44 44.47 43.10 54.13 55.94 55.24 54.86 54.51 53.46
51.85 51.84 57.35 57.38 57.34 58.01 57.90 57.36 56.85 57.52 57.32 56.78 57.01 45.63 44.29 43.62 51.86 53.63 54.47 43.32 42.98 49.30
46.83 46.79 47.40 54.31 58.14 58.46 58.10 57.43 57.52 56.91 56.66 52.49 56.78 44.16 43.50 44.52 52.86 45.23 35.89 34.57 34.77 35.87
40.89 41.39 43.02 45.10 53.13 57.16 57.17 56.21 53.96 46.11 39.48 39.23 40.91 40.40 40.12 40.74 43.15 42.12 34.51 32.52 31.60 33.13

GFSNIL_sfc_wetblb_084.txt.gz
Wetbulb
58.20 57.69 57.69 57.65 57.26 55.83 55.45 56.42 56.90 56.42 57.14 57.79 57.68 57.74 57.63 57.39 57.04 56.88 56.24 55.04 54.53 54.90
58.56 58.23 57.50 57.86 58.07 57.46 56.23 56.61 56.65 56.14 56.86 57.46 57.81 58.23 58.31 57.88 57.36 57.34 57.03 56.04 55.73 55.46
58.75 58.63 58.33 58.22 57.65 57.59 57.57 56.45 56.44 55.97 56.27 57.17 57.37 57.63 57.17 57.56 57.41 56.96 57.14 56.89 55.88 55.59
58.05 58.40 58.14 57.40 57.29 58.06 58.09 57.37 56.67 56.62 55.22 55.90 55.94 56.10 56.00 56.78 56.79 55.88 56.48 56.35 55.69 55.38
57.89 57.86 57.51 57.67 58.05 58.32 57.99 57.96 57.18 56.65 55.96 54.99 55.20 55.67 55.25 55.36 56.03 54.40 54.71 55.16 55.11 54.70
57.37 57.57 57.60 58.29 58.90 58.79 58.57 58.21 57.73 56.53 55.82 55.34 55.17 54.76 54.98 55.02 54.48 53.94 53.55 53.72 53.89 54.25
56.60 56.86 57.39 57.68 57.95 58.30 58.60 58.29 58.13 57.71 56.60 55.38 54.87 55.08 55.14 54.71 54.09 53.70 53.77 53.46 53.49 53.77
56.85 57.22 57.00 56.85 56.97 57.46 57.55 57.69 57.88 57.50 57.16 56.92 55.51 54.47 54.17 54.42 54.02 53.47 53.18 53.36 53.45 53.68
57.68 57.49 56.97 56.88 56.91 56.97 56.90 57.21 57.27 56.92 56.66 56.37 56.31 50.00 46.00 51.00 53.80 53.57 52.86 52.28 52.77 53.22
54.33 56.94 57.88 57.81 57.51 56.99 56.86 56.99 56.93 56.87 57.07 56.58 56.75 47.37 46.01 44.54 54.83 54.60 53.92 53.30 53.18 52.74
49.10 49.47 51.03 52.64 57.43 57.49 57.40 56.99 57.27 57.38 57.52 57.33 57.31 46.77 44.81 43.27 53.47 55.42 55.38 54.53 53.59 52.99
44.43 45.06 46.37 46.29 47.27 52.23 57.82 57.26 57.02 57.27 57.25 57.34 57.61 46.30 44.68 44.46 53.02 54.45 54.83 55.17 54.60 53.92
39.54 39.61 41.58 42.18 44.05 46.46 48.76 57.17 57.79 57.03 57.07 53.65 56.82 48.43 44.94 45.72 54.10 52.23 52.37 53.24 40.89 37.25
34.77 35.17 36.46 37.37 39.78 42.55 43.87 45.45 54.96 54.57 41.50 41.52 38.34 39.00 38.80 42.25 51.76 51.79 48.98 42.35 33.26 33.10

GFSNIL_sfc_wetblb_087.txt.gz
Wetbulb
58.06 57.77 56.57 56.41 55.72 54.63 55.36 56.01 55.48 55.08 56.34 56.62 56.76 57.82 57.17 56.30 56.39 56.26 55.32 53.96 53.71 53.95
58.25 57.78 56.98 56.85 56.23 55.18 54.88 55.81 56.73 56.32 56.19 56.79 56.62 56.53 57.14 56.97 55.89 56.25 56.06 55.46 54.66 54.01
57.43 57.96 57.89 57.73 56.81 56.78 55.32 54.74 54.51 54.77 55.86 56.59 57.07 57.02 56.77 56.38 56.87 56.38 56.36 56.08 55.23 54.53
57.26 57.98 58.08 57.64 57.60 57.89 57.20 55.62 54.66 55.16 55.18 55.32 56.43 56.96 56.85 56.80 56.86 56.14 56.07 56.27 55.81 55.60
57.05 57.92 58.05 57.67 57.90 58.06 57.49 57.66 56.61 55.19 54.96 54.48 55.28 55.77 55.87 55.96 56.38 55.24 55.61 56.18 55.85 55.40
56.11 56.59 57.34 57.56 57.73 57.77 57.81 57.93 57.50 56.82 55.75 55.22 54.31 54.61 54.97 55.06 55.14 55.02 54.98 55.26 55.25 54.78
56.02 56.33 56.83 57.14 57.56 57.41 57.81 57.82 57.57 57.43 56.89 56.34 55.83 54.79 54.19 54.43 54.43 54.75 54.82 54.25 54.40 54.34
56.95 57.28 57.86 57.64 57.56 57.69 57.55 57.55 57.47 57.19 56.90 56.35 56.05 55.78 55.18 54.61 53.73 53.59 53.75 54.11 53.71 53.49
57.06 57.09 56.96 56.87 57.06 57.11 57.45 57.10 56.94 56.65 56.71 55.99 55.47 48.91 46.04 51.47 54.04 53.89 53.08 52.68 53.13 53.10
47.59 48.93 49.92 53.16 56.62 56.45 56.24 56.65 56.64 56.87 56.90 56.30 56.47 47.74 45.19 44.05 53.76 53.73 53.51 53.53 53.46 52.99
42.50 43.54 45.57 47.06 46.87 48.08 51.19 56.35 56.56 56.58 56.72 56.92 57.34 48.19 46.54 44.86 52.09 53.46 54.08 53.98 53.57 53.20
37.47 39.20 40.40 40.01 40.73 43.43 44.96 47.63 49.47 56.35 57.07 56.76 56.82 47.69 45.27 45.19 52.45 53.25 53.71 54.67 54.78 54.28
33.49 34.90 34.86 35.88 37.26 38.70 41.09 43.24 46.11 47.79 45.80 39.10 40.48 35.58 36.52 42.32 53.87 52.22 52.29 53.39 53.72 46.66
31.29 32.27 32.31 33.21 34.55 35.81 37.13 39.59 38.43 36.32 33.61 33.15 32.16 33.43 35.17 37.05 41.64 51.15 51.20 50.46 47.59 33.94

GFSNIL_sfc_wetblb_090.txt.gz
Wetbulb
55.98 56.81 56.96 56.67 56.40 56.13 56.72 57.11 56.93 57.93 57.52 56.91 57.12 56.41 56.36 55.60 55.03 54.70 53.81 53.09 53.17 52.98
57.20 55.75 56.92 56.63 56.70 56.20 54.67 56.53 55.88 55.74 56.32 56.75 56.58 57.73 56.15 56.11 55.68 56.00 55.05 54.28 53.54 53.31
56.89 56.74 57.04 56.54 55.33 54.25 53.97 54.84 54.67 55.11 54.71 55.35 55.44 56.36 57.13 56.56 56.38 56.20 56.32 55.89 54.84 54.46
56.92 56.67 57.62 57.01 55.48 54.93 53.96 53.90 54.04 54.76 54.86 54.89 55.25 55.93 55.21 56.05 56.38 55.33 55.67 55.98 55.42 54.73
56.31 56.28 57.15 57.22 57.34 57.01 55.81 54.58 54.29 54.17 54.18 54.50 54.97 55.59 55.35 54.99 55.22 54.64 54.54 55.13 54.99 54.75
55.79 55.44 55.91 57.38 57.66 57.72 57.45 57.23 55.80 54.75 54.23 53.77 54.25 55.01 55.82 55.87 55.35 55.07 55.05 54.99 54.77 54.82
55.82 55.72 55.62 56.24 57.45 57.51 57.76 57.32 57.17 56.96 56.22 55.46 54.86 54.13 54.36 54.58 54.89 54.91 54.99 55.13 55.34 55.41
55.87 55.96 56.24 55.98 56.50 57.31 57.07 56.55 56.68 56.65 56.43 56.53 55.98 55.29 54.22 54.43 54.46 53.91 53.97 54.48 54.33 54.66
49.55 54.48 55.43 56.78 56.99 56.91 56.77 57.07 57.10 56.58 56.00 55.55 55.76 48.79 45.74 51.02 54.14 53.69 53.47 53.37 53.68 54.08
44.92 45.95 46.26 47.89 47.82 48.81 51.39 56.16 57.00 57.01 56.87 56.42 56.35 47.04 45.94 43.85 53.81 54.75 53.70 53.13 53.13 53.02
39.27 40.70 41.55 42.05 42.37 43.43 44.94 46.67 48.97 50.35 54.50 56.46 56.94 41.79 42.76 43.31 51.17 53.87 54.80 54.44 54.09 53.76
34.87 35.11 36.07 37.16 37.88 39.46 40.91 42.89 44.77 43.68 39.41 38.03 39.60 35.07 35.86 38.14 50.53 52.61 53.23 54.31 54.48 54.50
32.50 32.59 32.58 32.99 33.39 36.35 39.00 40.17 40.25 36.26 34.44 32.78 33.82 33.46 35.40 36.26 41.56 47.75 51.50 52.39 52.56 42.50
31.49 31.73 32.00 31.82 32.72 33.76 35.60 35.65 34.54 32.64 31.40 30.46 30.76 31.43 33.47 34.65 37.36 37.26 33.91 32.67 31.85 32.18

GFSNIL_sfc_wetblb_093.txt.gz
Wetbulb
57.82 59.57 59.88 59.38 58.68 58.98 57.72 57.84 58.17 57.50 56.22 55.29 54.85 54.10 54.14 56.58 55.38 56.15 56.72 56.13 56.24 57.28
58.12 59.40 59.30 58.80 59.00 58.12 58.73 58.34 58.24 58.01 56.87 55.76 54.59 54.30 53.21 56.03 55.21 55.59 57.15 56.26 55.60 56.26
57.94 58.38 59.28 59.41 58.47 57.38 57.37 58.55 58.30 57.20 57.44 57.40 55.66 53.71 53.59 55.89 57.28 55.71 55.92 56.16 55.24 56.64
58.42 58.26 58.51 58.15 57.98 57.26 57.95 58.86 59.55 59.37 57.58 57.03 57.78 58.02 57.30 58.04 57.01 55.72 55.57 56.92 55.52 54.89
58.77 57.92 57.98 59.06 58.42 58.97 59.12 59.38 59.30 59.30 58.81 58.55 59.04 59.30 58.93 58.00 57.31 56.35 55.78 56.13 57.83 56.45
57.35 57.22 57.35 59.42 58.83 58.48 58.66 58.50 58.29 58.62 57.85 57.92 58.23 58.18 58.10 57.38 57.04 57.12 57.40 57.37 57.67 58.44
56.49 56.85 58.45 59.51 59.53 59.13 59.10 58.65 57.17 56.80 57.44 58.17 57.72 57.98 57.82 57.31 56.81 56.91 57.25 58.89 59.38 59.15
57.58 58.13 58.85 59.11 59.19 59.21 59.23 59.19 59.32 58.67 57.95 57.47 57.36 57.15 57.22 57.49 57.81 57.71 57.26 57.53 57.41 57.85
48.54 48.96 49.38 50.68 55.09 57.15 57.33 57.56 57.86 58.22 58.68 58.77 58.17 48.44 45.46 52.24 57.42 57.23 57.13 57.47 57.89 58.17
42.84 43.26 43.85 45.57 46.19 46.17 47.02 49.40 50.90 52.76 54.65 56.30 49.17 36.30 38.88 41.76 54.52 55.08 54.88 54.98 55.33 55.34
37.92 38.49 40.08 40.94 41.30 41.64 43.80 45.52 46.00 41.44 39.87 42.64 36.48 35.16 35.70 35.36 45.03 52.60 55.01 55.22 54.67 54.48
35.86 36.27 37.18 37.53 38.28 39.80 42.10 41.57 38.65 36.86 34.96 36.10 34.16 34.10 34.81 35.70 43.16 48.53 51.54 53.51 46.98 38.25
34.77 34.41 34.15 35.09 35.78 38.04 38.68 37.27 35.52 33.04 32.54 31.99 32.55 33.25 33.95 35.54 40.83 42.23 38.07 34.81 33.15 32.55
33.23 33.11 33.30 33.70 34.23 35.09 35.40 34.74 32.96 31.24 31.16 30.90 31.32 32.47 32.29 32.62 34.45 34.50 31.52 30.25 29.38 29.75

GFSNIL_sfc_wetblb_096.txt.gz
Wetbulb
62.60 59.11 61.99 61.08 61.00 60.22 59.54 58.84 58.25 57.88 56.94 56.62 56.93 56.99 56.87 56.49 56.59 57.63 58.43 60.26 61.15 60.30
61.18 59.70 60.76 62.62 62.77 62.11 60.93 59.25 58.36 57.90 57.09 56.46 55.55 55.37 54.75 54.22 56.10 57.36 56.92 59.04 60.60 60.24
59.06 59.53 60.94 62.59 60.78 60.81 61.93 59.87 59.06 58.21 56.94 55.81 55.20 55.35 56.09 53.78 53.96 55.61 56.53 56.58 58.68 59.55
58.87 59.45 60.38 61.24 60.73 60.53 59.81 59.89 59.62 58.83 57.12 55.51 55.08 54.58 54.17 54.04 54.06 54.82 57.25 57.63 56.36 57.28
58.89 59.02 59.23 59.54 60.63 60.65 59.12 59.53 59.80 59.92 57.69 57.21 55.68 55.16 54.20 54.08 54.95 55.45 56.72 57.59 55.78 55.60
58.46 58.72 58.41 59.03 61.62 60.83 61.03 60.50 60.61 60.66 59.39 58.58 58.24 57.10 56.85 57.40 57.13 57.98 58.22 56.87 54.90 55.63
57.65 57.86 58.38 59.87 60.83 59.51 59.68 60.30 60.54 60.53 60.89 60.48 60.14 59.97 60.33 60.08 60.22 59.97 58.29 57.92 57.17 56.64
57.52 58.25 58.26 59.99 60.09 59.88 59.66 59.27 59.43 58.99 58.91 59.38 59.59 58.57 58.91 58.80 58.53 57.85 57.60 58.10 58.50 58.75
46.48 48.30 48.98 49.89 50.43 54.25 54.68 56.72 58.90 58.92 59.08 58.68 46.32 36.51 37.66 46.21 58.98 58.51 58.04 58.25 59.53 59.99
41.14 42.35 43.59 44.83 45.32 46.16 47.66 48.61 45.96 45.18 42.11 38.22 37.23 35.50 36.16 35.91 49.61 56.42 58.14 58.68 58.40 57.74
38.36 38.48 40.40 40.82 41.92 44.22 43.99 41.52 39.58 39.05 39.95 37.21 34.97 34.35 34.88 34.60 45.07 48.53 51.64 49.13 42.15 43.92
36.49 36.59 37.91 38.20 39.93 41.15 40.06 37.16 35.67 35.23 35.13 34.68 33.21 33.54 34.27 38.76 45.06 41.81 37.43 34.84 33.78 35.29
35.55 36.01 35.84 37.19 39.23 38.97 37.35 35.39 34.64 33.42 33.57 33.02 33.20 32.19 33.24 39.18 41.75 36.37 33.97 31.38 31.05 30.98
33.26 33.85 35.32 35.90 36.86 37.57 36.82 36.20 35.14 33.87 33.75 33.36 32.23 32.05 31.84 33.39 36.78 34.06 31.19 30.16 29.41 29.97

GFSNIL_sfc_wetblb_099.txt.gz
Wetbulb
66.14 64.37 63.31 62.72 61.94 61.52 59.60 59.44 58.72 58.36 57.57 57.64 58.65 59.54 58.95 58.17 57.93 58.27 58.23 58.21 58.60 58.63
65.17 64.01 62.65 62.80 62.79 61.85 61.43 60.37 59.90 58.41 56.78 57.22 57.33 57.33 57.25 57.23 57.21 57.46 57.91 58.66 59.25 58.29
64.41 62.83 63.17 62.87 61.85 61.83 62.82 60.66 59.43 58.75 57.23 56.56 56.96 57.70 57.29 56.65 57.30 56.49 57.64 56.77 58.65 59.10
63.14 62.53 62.44 62.14 62.50 61.00 61.88 60.91 59.37 58.08 57.63 56.06 55.33 55.37 54.73 55.29 55.05 55.35 55.82 56.50 57.46 56.81
61.12 61.43 60.86 60.89 61.98 62.04 61.64 61.76 61.16 59.56 57.87 56.34 55.54 55.25 54.89 54.54 54.21 53.40 53.31 54.62 54.83 55.57
59.08 59.47 59.85 60.38 61.35 61.26 60.50 60.34 61.07 60.58 58.50 57.42 56.34 56.16 55.71 55.04 55.23 55.78 55.78 55.47 57.16 58.05
58.65 59.31 59.27 60.48 61.06 61.31 60.80 60.72 60.61 61.10 60.29 59.34 58.67 57.35 56.50 55.61 55.99 57.31 58.25 58.99 58.95 60.10
58.20 58.71 59.14 59.07 60.49 60.72 60.78 60.69 60.97 60.85 60.96 60.49 59.61 50.41 50.64 56.98 57.22 58.27 57.39 59.38 59.55 58.14
47.29 47.09 48.18 50.19 51.59 57.38 57.05 55.52 55.14 51.53 56.19 45.00 40.86 36.05 36.97 40.76 57.46 58.61 58.28 57.77 58.30 58.40
42.51 43.36 43.67 45.53 45.85 44.96 44.05 43.99 44.07 41.36 39.45 36.92 36.57 34.85 35.95 35.87 50.36 57.47 55.95 50.10 51.36 53.66
39.29 39.60 41.11 41.69 41.18 39.63 39.11 37.81 38.31 37.91 36.81 35.12 33.88 34.27 35.31 35.65 46.65 42.17 37.59 36.46 37.79 38.82
37.18 37.10 39.82 38.23 38.25 37.44 35.77 34.76 34.31 35.35 35.45 33.51 32.64 33.87 35.19 42.64 40.21 35.68 33.39 32.50 32.77 33.69
35.02 35.40 35.80 37.18 37.26 36.44 34.78 34.06 33.87 32.67 32.93 33.54 31.95 32.60 34.13 39.84 38.06 33.96 31.40 30.97 30.93 30.83
33.36 34.25 35.94 36.06 36.68 36.91 36.55 35.97 34.81 33.63 33.47 32.26 32.02 31.58 32.32 34.73 35.95 33.21 31.13 30.26 29.73 30.61

GFSNIL_sfc_wetblb_102.txt.gz
Wetbulb
65.34 64.86 62.93 61.27 61.98 60.87 59.14 58.65 58.74 59.22 59.38 59.23 59.59 59.85 59.80 60.35 59.97 59.95 59.67 59.07 58.34 57.70
64.48 64.45 62.24 61.69 62.39 60.69 59.97 59.20 59.08 58.67 58.34 58.71 59.31 58.81 58.25 57.39 57.21 57.83 57.67 57.89 57.68 57.34
63.64 63.59 62.64 61.79 61.21 61.20 59.78 59.29 58.25 57.48 57.70 57.59 57.51 57.65 57.86 57.33 57.43 57.41 57.39 57.75 57.89 57.36
62.31 61.74 62.12 61.33 61.50 61.10 60.70 59.71 58.94 57.75 56.84 56.71 56.86 56.99 57.09 57.08 56.82 56.69 56.77 56.73 56.86 57.13
60.46 60.89 61.13 61.08 61.25 61.24 60.31 59.33 58.60 58.44 56.88 56.43 56.45 56.78 56.23 55.71 56.13 55.89 55.81 56.13 55.73 55.79
58.71 59.25 59.21 60.51 60.92 60.67 60.41 59.61 59.02 58.17 57.16 56.13 55.79 55.15 55.45 55.35 54.32 54.68 55.05 54.78 54.82 54.69
57.93 58.27 58.81 60.28 60.45 60.04 60.19 59.79 59.59 59.06 57.75 57.07 56.26 55.77 55.69 55.47 55.10 54.29 54.30 54.45 54.55 54.78
53.96 58.03 58.62 58.94 59.97 59.78 59.39 59.30 59.50 59.22 58.47 56.82 53.58 44.90 50.24 55.40 55.13 55.13 54.85 55.50 55.76 55.51
44.82 46.46 48.85 50.41 52.86 52.13 50.99 49.81 48.00 48.13 44.74 41.80 38.42 36.15 37.07 41.89 54.74 55.28 55.75 56.49 56.84 57.28
40.29 41.20 42.65 42.77 42.65 42.65 43.23 42.19 40.23 39.16 37.80 36.03 35.80 35.77 36.85 36.74 50.02 45.82 43.96 43.29 45.24 46.18
37.62 38.59 38.34 38.18 37.23 36.87 37.47 37.39 36.27 35.46 35.25 34.57 34.46 35.38 37.13 39.02 40.40 36.57 35.33 35.18 36.43 36.14
36.72 35.99 35.69 35.34 34.98 35.46 34.66 34.13 33.92 34.08 33.28 32.72 32.95 35.14 37.44 36.99 35.62 33.40 32.23 32.64 33.07 33.16
35.24 35.72 34.49 32.99 33.53 34.61 33.12 32.28 32.83 31.59 31.78 32.02 31.63 33.95 36.64 36.30 34.29 32.08 31.08 30.97 31.11 31.60
32.82 33.09 32.64 32.66 33.55 32.84 32.64 32.64 32.23 31.13 30.88 30.64 31.11 31.70 33.50 34.14 32.77 31.40 29.78 29.18 29.21 30.44

GFSNIL_sfc_wetblb_105.txt.gz
Wetbulb
63.12 62.41 61.94 61.05 60.27 59.56 58.71 58.48 58.59 58.40 58.09 59.22 59.76 59.78 59.97 60.02 59.74 59.89 59.26 58.69 58.46 58.39
62.10 63.27 60.77 59.91 60.29 59.43 58.92 58.04 58.48 58.61 58.04 59.03 59.29 59.30 59.58 59.69 59.27 59.34 59.30 58.97 58.69 58.37
60.94 61.60 61.03 60.88 59.75 58.69 58.21 58.58 58.31 58.20 58.10 58.39 58.57 59.00 58.34 58.29 59.34 58.97 59.25 58.78 58.16 57.95
59.61 60.58 60.58 60.76 59.47 58.49 58.15 58.62 58.47 58.07 57.46 57.28 57.32 57.32 58.10 57.28 57.58 57.74 57.90 57.92 57.68 57.30
58.96 59.89 60.08 60.14 59.80 58.79 58.09 58.67 58.47 57.73 57.22 56.94 56.80 56.88 56.74 56.70 56.98 56.84 56.62 56.96 57.00 56.68
58.59 59.09 59.72 60.04 59.98 59.59 58.65 58.31 58.75 57.63 56.90 56.72 56.80 56.60 56.82 56.70 56.48 56.60 56.74 56.66 56.28 56.32
57.66 58.25 59.34 59.85 60.06 60.01 59.26 58.03 58.14 57.54 57.06 56.63 56.32 56.40 56.58 56.18 55.98 55.94 56.26 56.44 56.12 56.18
46.61 52.11 53.85 54.86 59.21 59.75 59.37 58.97 58.27 57.69 57.15 56.04 54.35 50.12 55.20 55.58 55.22 54.41 54.26 55.03 54.77 55.25
41.11 42.00 43.63 45.28 45.96 48.67 47.36 46.29 44.80 44.34 43.59 41.43 39.17 36.55 37.98 46.53 55.18 55.05 54.57 53.95 54.53 55.09
38.68 38.78 39.32 39.06 38.82 38.83 39.68 39.16 37.72 37.27 37.06 36.61 37.15 36.76 37.89 38.30 48.46 46.18 43.87 43.24 46.59 44.20
37.19 37.16 37.15 37.21 37.27 35.05 35.45 35.16 34.28 34.17 35.09 36.02 37.52 36.89 37.23 36.57 36.86 35.07 34.57 34.92 35.64 35.83
33.72 34.99 35.51 34.84 35.77 35.56 33.42 32.41 31.91 32.35 32.22 33.18 34.83 35.83 35.69 35.02 33.70 32.04 31.58 32.16 33.12 33.09
32.65 32.54 32.73 32.89 33.61 34.17 33.06 31.69 31.40 30.60 30.91 31.97 32.11 34.65 35.67 35.14 33.51 31.31 30.73 31.35 31.60 32.40
31.25 31.03 32.00 32.23 32.94 32.91 32.46 32.20 31.23 29.95 29.88 30.38 31.24 32.06 33.66 33.67 32.51 30.87 29.72 29.48 29.84 31.34

GFSNIL_sfc_wetblb_108.txt.gz
Wetbulb
62.94 61.83 61.29 61.00 60.86 60.15 59.91 60.05 59.85 60.00 59.20 59.02 59.29 60.09 60.53 60.31 60.43 60.45 59.60 59.32 58.39 57.53
63.48 61.56 61.48 61.04 60.35 60.08 60.02 58.72 58.06 58.81 58.22 57.74 58.12 58.96 59.39 59.55 59.53 59.67 59.60 59.12 58.66 57.74
63.06 61.88 61.44 60.37 59.76 59.43 59.09 58.32 57.42 57.32 57.06 57.84 58.21 58.50 58.93 58.99 59.33 59.13 59.31 59.04 58.54 57.97
60.46 59.69 59.64 60.09 59.87 59.40 58.87 57.92 56.88 57.10 57.64 57.65 57.77 58.23 57.99 58.33 58.95 58.53 58.59 58.84 58.26 57.68
58.92 58.61 58.62 59.40 59.15 58.99 58.16 57.80 57.24 57.20 57.22 56.98 56.96 57.33 57.37 57.07 57.81 58.32 58.05 57.77 57.94 57.41
49.14 57.91 57.85 58.84 58.70 58.72 57.96 58.05 57.76 57.77 57.24 56.32 56.38 56.66 56.79 57.35 56.97 57.11 57.72 57.79 57.40 57.34
42.97 46.97 55.92 58.84 59.17 58.68 58.18 57.86 57.86 57.70 57.56 57.30 57.06 56.77 56.80 56.62 56.36 56.48 56.28 56.52 57.12 57.18
40.42 42.20 44.58 50.35 59.31 58.88 58.26 58.34 58.11 57.26 56.88 56.11 55.17 48.44 53.94 56.30 55.94 55.82 55.88 56.20 56.24 56.44
38.19 38.81 40.00 40.77 43.68 45.37 45.01 44.75 44.29 43.31 42.90 42.24 40.93 37.28 38.35 43.36 55.36 55.11 54.80 54.36 54.64 55.23
35.90 35.69 36.62 37.26 36.79 37.52 38.42 40.35 37.91 38.09 39.38 38.68 38.28 37.95 38.91 40.70 46.97 43.86 42.97 43.44 47.80 43.58
34.71 34.18 34.59 33.97 33.66 33.18 33.67 33.91 34.36 34.66 35.86 36.10 35.84 35.73 36.09 36.18 36.86 35.47 34.96 35.47 36.73 37.53
32.51 33.04 32.92 32.73 32.11 32.27 32.62 31.62 31.81 32.69 33.28 33.33 34.30 35.31 35.08 34.89 33.66 32.51 31.92 32.97 34.15 34.73
30.82 30.61 31.63 31.91 31.94 32.01 31.80 31.12 31.17 30.85 31.59 32.86 32.35 34.35 34.75 34.07 32.89 30.87 30.72 31.50 31.98 33.09
28.63 29.26 29.68 31.18 31.66 31.71 31.07 30.48 29.83 29.33 29.88 30.66 31.63 32.70 33.88 33.09 31.50 30.68 29.79 29.85 30.19 31.57

GFSNIL_sfc_wetblb_111.txt.gz
Wetbulb
52.52 62.82 61.18 60.73 60.92 60.49 60.53 60.66 60.24 61.31 61.72 61.66 61.33 60.76 60.24 60.18 60.05 60.32 60.37 59.87 59.97 58.99
51.00 60.57 62.33 60.88 60.48 60.43 60.52 59.87 60.20 61.15 60.68 60.43 60.37 60.07 59.97 59.83 59.67 60.01 60.03 59.78 60.09 58.84
52.44 56.44 63.08 62.24 60.19 59.81 60.11 59.36 59.41 59.33 59.12 58.42 58.24 58.27 58.29 58.41 58.83 58.85 59.29 59.44 58.03 57.88
55.33 58.56 62.48 61.64 60.36 59.95 59.76 58.72 58.52 58.02 57.58 57.62 57.18 57.52 57.43 57.58 58.10 58.17 58.63 58.93 58.39 57.48
46.50 49.84 59.75 60.25 60.14 59.60 59.42 59.11 58.65 57.90 57.24 57.32 56.80 57.40 57.12 56.96 57.47 57.83 57.89 58.43 58.11 57.36
42.73 44.17 46.38 52.35 59.01 59.32 59.00 58.44 58.22 57.80 57.04 57.04 56.92 56.74 57.06 57.04 56.92 57.53 58.04 57.83 57.86 57.32
39.61 41.57 42.18 43.63 47.42 58.66 58.76 58.08 57.72 57.58 57.36 56.66 56.62 56.72 56.70 56.68 56.78 56.84 57.52 58.10 58.04 57.82
38.24 39.19 39.06 38.88 39.30 42.23 57.04 58.01 57.93 57.48 57.18 56.98 56.70 53.91 56.48 56.58 56.30 56.14 55.72 56.00 56.40 57.22
36.53 37.00 36.80 36.76 36.80 36.41 37.71 41.34 46.93 47.07 47.76 45.53 42.30 37.83 39.08 45.97 56.10 55.92 55.40 55.26 55.46 55.60
34.70 34.88 35.15 35.44 35.33 34.76 34.48 34.55 35.42 37.05 39.21 38.26 37.72 38.13 39.42 40.71 49.26 47.98 45.93 46.93 51.65 45.85
32.22 32.95 33.70 33.49 33.10 33.19 33.46 32.84 32.28 32.75 34.19 35.36 35.28 35.66 36.44 36.59 37.72 35.96 35.48 36.08 37.82 39.80
30.53 31.09 31.43 31.49 31.79 32.03 32.08 31.65 31.83 31.91 32.02 32.96 33.52 34.88 34.82 34.87 34.01 32.72 32.16 33.11 34.70 35.57
28.25 28.24 29.69 29.83 30.50 31.01 31.12 30.68 31.30 30.36 31.26 32.04 32.03 33.90 34.40 33.70 32.63 30.76 30.76 31.64 32.18 33.74
26.04 27.01 27.62 28.74 29.36 29.62 29.35 29.59 29.33 29.26 29.84 30.43 31.19 31.86 33.53 33.50 31.97 30.98 29.75 29.92 30.38 31.52

GFSNIL_sfc_wetblb_114.txt.gz
Wetbulb
51.66 52.90 62.24 61.27 61.34 61.08 61.45 61.79 62.90 62.70 62.54 61.92 62.32 62.31 62.11 61.83 61.72 61.07 60.76 60.29 60.13 59.73
50.06 52.35 53.75 61.78 61.21 60.51 60.39 60.57 59.56 61.60 61.23 61.42 61.48 61.71 61.58 61.03 59.96 59.86 59.92 59.85 60.05 59.69
48.68 53.08 53.13 57.34 60.68 60.59 60.13 58.88 59.06 60.12 60.79 61.21 60.95 61.09 60.54 60.22 59.92 59.44 59.52 59.80 59.48 59.25
45.11 47.36 52.95 56.19 61.91 61.06 60.44 59.65 58.84 59.87 60.15 60.05 59.46 59.46 59.12 58.74 58.18 57.94 58.00 58.26 58.15 57.96
42.89 44.07 45.07 47.65 49.33 60.98 60.26 60.16 59.65 59.63 59.30 58.80 58.38 58.18 57.76 57.14 56.98 56.78 56.47 57.02 57.92 57.98
39.85 40.83 41.35 42.34 44.61 47.08 59.08 59.78 59.14 58.90 58.30 57.94 57.72 57.24 56.82 56.43 56.52 57.17 57.39 57.89 57.95 57.84
37.61 38.71 39.56 40.45 41.30 41.95 43.97 52.73 58.24 58.38 58.29 58.29 57.87 57.12 57.02 56.34 56.70 56.94 57.27 57.83 58.00 58.19
36.34 37.10 37.72 38.40 39.32 39.71 39.38 39.61 41.96 52.71 57.66 57.52 57.02 54.47 56.50 56.60 56.18 56.08 56.13 56.68 57.38 57.82
34.68 34.81 34.95 35.75 36.43 37.32 37.32 36.96 36.82 37.17 39.32 40.26 40.48 38.01 39.79 50.99 56.12 56.05 55.61 55.27 55.69 56.33
32.66 33.01 33.45 33.87 33.81 34.04 34.84 35.94 35.49 35.42 35.30 35.04 35.33 35.99 36.93 39.34 51.95 51.57 47.42 47.64 51.97 49.25
29.96 30.92 31.73 31.99 31.62 32.04 32.48 32.70 33.08 33.29 34.40 34.16 33.77 34.82 35.15 35.45 37.54 36.56 35.89 36.46 38.57 42.11
27.97 28.66 29.28 29.46 30.00 30.77 30.85 30.51 31.01 31.62 31.85 32.18 32.21 34.06 34.46 33.99 33.41 32.54 32.46 33.69 36.18 37.32
26.94 26.92 27.51 28.12 28.52 29.91 30.77 30.13 30.17 29.62 30.47 31.39 30.77 32.81 33.83 33.74 32.46 31.15 31.22 31.85 32.33 33.51
24.27 25.65 25.55 26.73 28.39 28.62 28.87 29.62 29.35 29.07 29.44 29.48 30.63 30.98 31.90 32.16 30.50 30.56 29.83 30.07 30.60 31.63

GFSNIL_sfc_wetblb_117.txt.gz
Wetbulb
51.99 53.38 54.98 63.25 64.44 64.83 63.75 63.95 64.48 64.06 64.40 63.98 63.81 63.48 63.95 63.94 63.20 63.20 63.23 62.35 61.67 61.66
50.19 51.29 54.11 55.24 61.72 63.72 65.23 64.15 64.08 63.99 63.51 63.14 63.32 63.14 62.91 62.91 62.55 62.30 62.30 62.02 61.83 61.34
47.12 48.50 51.44 55.77 55.83 61.18 62.75 63.55 63.45 63.20 62.91 62.71 62.61 62.24 62.20 62.25 62.73 61.67 61.64 61.56 61.17 60.71
43.63 45.21 46.86 49.36 53.43 53.86 61.69 61.76 61.38 62.01 62.31 62.09 61.31 61.25 60.91 61.64 61.67 61.05 60.38 60.26 60.27 60.10
40.88 42.10 43.02 43.72 45.31 48.67 50.61 61.63 61.20 60.85 60.69 61.09 61.23 61.46 60.33 59.79 60.06 59.94 59.17 59.11 59.22 59.12
38.22 38.91 39.97 41.06 42.51 44.00 46.03 49.05 57.80 60.54 59.89 60.06 59.83 59.62 59.56 59.75 59.30 58.90 58.98 58.17 57.79 57.95
36.38 37.25 37.84 38.91 40.38 41.07 42.36 42.28 44.12 45.80 56.11 58.85 58.71 58.47 58.45 58.84 58.36 58.11 58.31 59.30 58.46 59.31
35.69 36.58 36.58 36.89 37.64 38.93 39.28 39.95 40.50 40.29 40.35 40.89 40.06 38.94 40.54 49.80 57.15 57.45 57.61 58.33 58.40 59.02
33.88 33.76 34.09 34.59 35.18 35.78 35.89 36.72 37.23 37.62 37.82 36.73 37.40 36.26 37.00 39.68 50.38 57.23 56.59 56.13 57.48 58.35
32.26 32.57 32.94 33.02 33.56 32.92 33.87 34.07 34.09 34.31 35.27 34.73 34.82 35.64 36.23 38.07 38.86 42.93 48.52 49.23 51.91 54.14
30.12 31.47 32.07 32.02 31.96 31.95 32.29 32.55 31.57 31.63 32.56 32.78 33.26 34.55 35.20 35.06 35.31 34.32 34.24 35.49 37.55 40.73
28.50 28.94 29.92 30.35 31.27 32.06 31.62 31.30 30.59 30.46 30.57 31.02 31.40 33.67 34.21 35.29 34.82 33.66 32.26 32.41 33.54 35.34
28.40 27.64 27.76 29.12 30.03 31.91 32.70 31.82 32.49 31.24 30.66 30.96 30.69 32.45 32.81 32.80 33.33 32.25 31.75 31.58 31.33 32.55
27.65 28.25 28.51 29.86 30.32 30.25 31.67 31.73 31.27 31.48 31.46 30.64 30.83 31.21 31.25 31.07 29.35 28.76 27.58 28.00 28.77 30.15

GFSNIL_sfc_wetblb_120.txt.gz
Wetbulb
54.41 54.98 56.56 59.19 61.70 67.05 65.63 65.43 66.20 66.09 66.53 66.50 66.38 66.27 67.78 66.88 66.77 66.81 66.73 65.30 64.85 64.16
50.89 51.59 53.10 54.96 56.97 57.95 66.11 65.73 66.16 65.45 64.82 64.89 65.50 65.45 66.14 66.74 64.74 65.71 65.95 66.66 66.23 64.06
47.23 48.85 50.05 52.80 55.10 56.97 57.44 63.08 64.96 64.41 64.26 64.74 64.51 64.11 63.95 64.28 64.03 63.35 63.72 64.08 64.17 63.57
43.68 44.90 46.21 46.91 48.68 51.20 54.09 54.85 63.08 63.69 63.74 63.38 63.33 62.46 61.95 62.31 62.72 62.41 62.44 63.08 62.92 62.92
40.22 41.19 41.97 42.99 44.43 46.74 49.58 50.88 56.39 62.33 63.05 62.99 62.50 62.17 61.20 61.21 61.44 61.40 61.18 62.29 61.82 61.85
38.49 38.52 39.27 39.91 41.34 42.61 44.34 45.90 47.46 48.23 51.77 59.34 60.90 61.53 61.59 61.01 60.69 60.82 61.03 61.48 61.38 61.63
37.07 38.06 37.89 38.36 39.00 40.14 41.11 41.89 42.48 42.57 42.47 42.90 42.59 42.11 43.47 49.26 59.12 60.12 60.23 60.60 61.37 60.76
36.79 36.85 37.23 37.38 37.41 38.13 37.90 38.80 39.18 39.54 38.58 39.01 38.61 37.49 38.38 41.94 47.94 56.67 58.79 59.24 58.99 59.13
37.08 36.55 35.22 35.99 36.40 36.42 35.82 36.22 36.25 36.38 35.53 35.16 35.96 35.53 36.49 39.16 47.51 45.65 52.08 56.21 57.87 58.56
34.60 34.85 35.34 34.64 34.37 33.31 33.77 34.04 34.08 34.31 34.77 34.12 33.60 34.72 35.82 36.01 39.07 37.83 37.40 38.77 41.05 43.82
32.72 33.08 33.92 34.29 34.39 34.54 33.62 33.17 32.02 32.07 33.36 33.09 32.78 33.60 33.96 35.34 37.88 35.48 34.53 34.29 35.04 36.58
30.93 31.52 32.16 31.85 32.60 34.02 33.81 33.92 32.56 32.73 32.29 32.00 31.57 32.85 32.98 33.74 34.81 33.89 32.73 32.66 33.90 34.11
30.84 30.53 30.76 32.22 31.90 33.45 33.77 32.38 33.78 32.40 32.22 31.37 31.72 32.00 31.85 32.16 31.55 30.29 29.01 30.41 30.99 31.89
30.73 30.93 31.51 31.98 32.76 32.03 32.58 32.75 32.22 32.22 32.22 31.78 31.68 31.40 31.22 30.66 32.33 32.24 29.08 27.62 28.03 29.58